GEFSSGP_prec_meanprecacc_318.txt.gz
Total_Precipitation_Accumulation
1.89 1.87 2.60 3.64 4.28 3.80 3.41 2.77 2.23 1.90 1.57 1.23 0.98 0.96 1.41 1.95 2.52 2.91 2.79 2.55 1.98 1.68 1.78 2.55 3.21 2.86 2.48 2.34 2.45 2.66 2.56 2.53 2.37 2.31 2.17 2.01 1.75 1.62 1.58 1.43 1.35 1.36 1.24 1.13 1.20 1.40 1.34 1.32 1.36
1.78 2.51 3.45 4.47 4.18 3.40 3.23 2.61 2.20 1.75 1.19 0.94 0.75 0.76 0.98 1.03 1.00 1.52 2.64 2.72 1.85 1.51 1.60 2.14 3.11 2.76 2.59 2.52 2.55 2.55 2.48 2.54 2.39 2.26 2.07 1.90 1.72 1.74 1.75 1.74 1.72 1.56 1.33 1.24 1.24 1.42 1.34 1.23 1.33
1.93 3.19 4.37 4.43 3.35 2.99 3.18 2.53 1.84 1.31 0.90 0.87 0.81 0.71 0.88 1.19 1.26 1.94 2.72 2.34 1.69 1.45 1.58 2.42 3.13 2.78 2.62 2.59 2.57 2.45 2.52 2.56 2.39 2.17 1.95 1.75 1.77 2.04 2.09 1.96 1.83 1.59 1.39 1.28 1.26 1.31 1.33 1.25 1.24
2.35 3.60 3.82 3.40 3.02 2.55 2.34 2.06 1.54 1.47 1.10 0.78 0.75 0.82 0.81 1.19 1.44 1.90 2.11 1.84 1.66 1.65 1.67 2.44 3.16 2.94 2.70 2.60 2.52 2.46 2.51 2.61 2.56 2.26 1.96 1.80 1.82 1.91 1.95 1.86 1.74 1.55 1.39 1.28 1.32 1.35 1.32 1.29 1.23
2.79 3.46 3.48 3.06 2.86 2.49 1.83 1.62 1.43 1.61 1.45 0.96 0.77 1.05 1.24 1.64 1.75 1.80 1.83 1.81 1.57 1.60 1.66 2.14 2.87 2.83 2.62 2.50 2.47 2.60 2.64 2.62 2.60 2.38 2.07 1.94 1.91 1.89 1.93 1.85 1.71 1.45 1.35 1.28 1.40 1.41 1.34 1.24 1.24
3.10 3.13 3.39 3.22 3.02 2.61 2.07 1.68 1.51 1.52 1.35 1.01 0.94 1.18 1.57 2.14 2.16 2.06 1.78 1.79 1.73 1.60 1.57 1.86 2.47 2.72 2.62 2.59 2.50 2.58 2.66 2.64 2.49 2.18 1.99 1.88 1.92 1.95 1.96 1.86 1.73 1.48 1.42 1.38 1.35 1.35 1.32 1.27 1.29
2.97 2.99 2.95 2.70 2.94 3.13 2.46 1.63 1.66 1.55 1.47 1.21 0.94 1.28 1.64 2.32 2.14 2.04 1.90 1.85 1.91 1.81 1.78 1.91 2.21 2.44 2.81 2.88 2.72 2.71 2.75 2.66 2.43 2.06 1.96 1.89 1.87 1.76 1.78 1.77 1.66 1.51 1.48 1.37 1.28 1.27 1.26 1.32 1.34
2.34 2.43 2.36 2.43 2.83 3.02 2.17 1.36 1.23 1.43 1.47 1.00 0.85 1.21 1.61 2.00 1.92 2.00 2.05 2.04 1.95 1.88 1.85 1.78 1.93 2.06 2.35 2.58 2.81 2.92 2.84 2.72 2.53 2.15 2.00 1.94 1.86 1.70 1.65 1.54 1.55 1.50 1.53 1.53 1.41 1.34 1.31 1.36 1.40
2.16 2.52 2.65 2.81 2.69 2.48 1.67 1.38 1.20 1.09 1.16 0.98 0.87 1.00 1.39 1.47 1.61 1.95 2.16 2.14 1.89 1.72 1.63 1.56 1.66 1.81 2.03 2.28 2.50 2.80 2.76 2.67 2.47 2.11 2.03 1.98 1.76 1.49 1.46 1.40 1.71 1.62 1.63 1.64 1.61 1.59 1.52 1.39 1.31
2.26 2.65 2.62 2.25 1.79 1.69 1.44 1.29 1.20 1.14 1.24 1.21 1.09 1.15 1.48 1.65 1.71 1.87 1.93 1.83 1.65 1.70 1.55 1.40 1.44 1.57 1.70 1.85 2.37 2.47 2.16 2.01 1.84 1.95 1.90 1.83 1.78 1.59 1.20 1.37 1.76 1.87 1.85 1.66 1.59 1.66 1.42 1.07 0.93
1.79 2.02 1.75 1.72 1.38 1.21 1.23 1.18 1.07 1.27 1.45 1.21 1.19 1.27 1.59 1.78 1.70 1.73 1.71 1.58 1.50 1.46 1.38 1.30 1.30 1.27 1.28 1.47 1.82 2.06 2.09 2.02 1.83 1.72 1.68 1.73 1.65 1.44 1.23 1.31 1.41 1.40 1.35 1.24 1.24 1.17 0.94 0.86 0.91
1.55 1.47 1.25 1.37 1.20 1.18 1.23 1.11 1.08 1.15 1.23 0.95 1.03 1.23 1.55 1.71 1.70 1.62 1.52 1.46 1.37 1.27 1.23 1.17 1.10 1.07 1.04 1.15 1.25 1.36 1.61 1.71 1.66 1.44 1.29 1.35 1.46 1.41 1.22 1.22 1.25 1.26 1.23 1.28 1.27 1.19 1.06 1.01 1.00
1.70 1.51 1.30 1.25 1.19 1.14 1.12 1.09 1.01 0.99 0.92 0.93 1.04 1.36 1.65 1.88 1.97 1.91 1.61 1.34 1.22 1.23 1.21 1.10 0.96 0.97 0.99 1.09 1.15 1.08 1.30 1.47 1.52 1.46 1.26 1.18 1.21 1.26 1.20 1.08 1.17 1.18 1.16 1.15 1.16 1.13 1.16 1.24 1.20
1.56 1.42 1.39 1.36 1.22 1.08 1.11 1.07 1.00 1.16 1.02 1.02 1.08 1.28 1.41 1.60 1.67 1.61 1.57 1.32 1.13 1.10 1.16 1.08 1.01 1.05 1.02 0.97 1.02 1.02 1.09 1.22 1.24 1.35 1.30 1.24 1.18 1.15 1.17 1.15 1.21 1.25 1.24 1.18 1.10 1.05 1.19 1.24 1.26
1.24 1.48 1.52 1.42 1.26 1.14 1.07 1.29 1.17 1.22 1.16 1.21 1.21 1.19 1.28 1.36 1.43 1.33 1.21 1.04 1.02 0.99 0.97 0.92 0.92 1.02 1.01 1.00 1.01 1.01 1.14 1.19 1.18 1.21 1.17 1.24 1.19 1.17 1.18 1.18 1.22 1.24 1.30 1.30 1.25 1.21 1.28 1.30 1.38
1.37 1.70 1.95 1.57 1.34 1.28 1.33 1.59 1.36 1.32 1.31 1.19 1.14 1.16 1.18 1.25 1.35 1.33 1.21 1.00 0.93 0.88 0.87 0.85 0.75 0.87 1.00 1.08 1.13 1.23 1.28 1.29 1.30 1.22 1.13 1.13 1.11 1.12 1.20 1.21 1.24 1.33 1.30 1.34 1.42 1.43 1.48 1.50 1.54
1.67 1.71 1.68 1.61 1.31 1.30 1.37 1.42 1.29 1.34 1.29 1.13 1.02 1.01 0.97 1.03 1.10 1.11 1.12 1.03 0.94 0.89 0.90 0.92 0.85 0.89 1.01 1.07 1.22 1.32 1.42 1.48 1.57 1.49 1.45 1.38 1.25 1.26 1.37 1.42 1.42 1.44 1.48 1.46 1.39 1.41 1.53 1.66 1.65
1.53 1.25 1.27 1.36 1.23 1.16 1.21 1.12 1.13 1.25 1.25 1.14 0.97 0.91 0.84 0.87 0.89 0.90 0.96 0.99 0.98 0.94 0.94 0.99 1.05 1.07 1.19 1.35 1.58 1.80 1.92 2.05 2.15 2.07 1.95 1.76 1.54 1.49 1.66 1.71 1.58 1.62 1.74 1.81 1.67 1.74 1.65 1.60 1.68
0.95 0.92 0.98 0.94 0.85 0.95 0.94 0.94 0.97 0.99 1.04 0.96 0.81 0.78 0.80 0.78 0.80 0.82 0.86 0.94 0.97 0.96 0.95 0.94 0.99 1.09 1.20 1.41 1.72 2.23 2.51 2.59 2.46 2.41 2.31 2.08 1.85 1.82 2.00 2.04 2.02 2.02 2.04 2.02 1.94 2.12 2.05 1.77 1.68
0.81 0.88 0.89 0.84 0.75 0.80 0.76 0.76 0.75 0.75 0.73 0.69 0.62 0.62 0.72 0.72 0.81 0.80 0.79 0.81 0.83 0.81 0.85 1.00 1.05 1.11 1.22 1.47 1.77 2.15 2.57 2.63 2.56 2.45 2.35 2.24 2.11 2.06 2.09 2.31 2.44 2.40 2.60 2.63 2.39 2.50 2.54 2.14 1.89
0.76 0.82 0.82 0.90 0.86 0.76 0.71 0.79 0.76 0.68 0.60 0.53 0.50 0.52 0.59 0.60 0.67 0.73 0.77 0.79 0.77 0.74 0.70 0.83 1.00 1.19 1.48 1.75 2.05 2.23 2.51 2.62 2.62 2.48 2.41 2.42 2.35 2.23 2.30 2.39 2.55 2.56 2.66 2.87 2.99 2.87 2.95 2.73 2.30
0.80 0.57 0.54 0.64 0.95 1.02 0.77 0.95 0.77 0.62 0.65 0.57 0.52 0.49 0.52 0.55 0.59 0.64 0.72 0.77 0.73 0.68 0.65 0.74 0.89 1.18 1.57 1.91 2.13 2.39 2.75 2.85 2.69 2.60 2.51 2.50 2.50 2.48 2.60 2.59 2.65 2.67 2.69 2.81 2.97 2.95 3.13 3.24 2.82
0.58 0.49 0.51 0.58 0.79 0.87 0.68 0.72 0.70 0.61 0.66 0.64 0.56 0.53 0.50 0.48 0.48 0.53 0.57 0.61 0.65 0.72 0.74 0.81 1.00 1.28 1.60 1.83 2.10 2.44 2.63 2.74 2.79 2.67 2.61 2.58 2.60 2.61 2.66 2.73 2.86 2.84 2.81 2.75 2.96 3.05 3.16 3.12 3.07
0.43 0.55 0.65 0.66 0.80 0.87 0.50 0.57 0.70 0.60 0.47 0.49 0.52 0.52 0.47 0.44 0.42 0.50 0.58 0.64 0.70 0.76 0.87 0.98 1.14 1.34 1.60 1.82 2.09 2.24 2.43 2.58 2.62 2.65 2.58 2.53 2.57 2.66 2.54 2.47 2.65 2.71 2.73 2.70 2.85 2.99 3.13 3.11 3.17
0.47 0.81 1.14 1.14 1.11 0.87 0.44 0.54 0.67 0.48 0.37 0.40 0.44 0.47 0.44 0.46 0.52 0.62 0.72 0.86 0.97 0.99 1.04 1.14 1.26 1.46 1.61 1.73 1.89 1.99 2.09 2.21 2.18 2.32 2.37 2.48 2.47 2.49 2.49 2.41 2.43 2.47 2.40 2.39 2.51 2.56 2.64 2.79 2.98
0.42 0.64 1.06 1.15 0.97 0.74 0.57 0.76 0.73 0.46 0.38 0.40 0.41 0.46 0.50 0.57 0.67 0.84 1.00 1.17 1.25 1.26 1.29 1.36 1.43 1.50 1.54 1.59 1.69 1.83 1.90 1.94 1.92 1.89 1.90 2.04 2.20 2.22 2.26 2.29 2.25 2.29 2.32 2.26 2.36 2.38 2.38 2.43 2.49
0.44 0.51 0.56 0.74 0.64 0.66 0.66 0.76 0.71 0.50 0.47 0.46 0.49 0.54 0.64 0.84 0.94 1.10 1.27 1.39 1.35 1.35 1.36 1.42 1.47 1.49 1.49 1.54 1.59 1.57 1.62 1.66 1.68 1.65 1.71 1.74 1.80 1.79 1.83 1.89 2.04 2.16 2.21 2.23 2.33 2.39 2.36 2.29 2.27
0.40 0.55 0.71 1.00 1.10 0.95 0.78 0.89 0.88 0.69 0.57 0.51 0.59 0.71 0.88 1.15 1.31 1.48 1.67 1.65 1.57 1.58 1.65 1.56 1.48 1.48 1.53 1.56 1.57 1.51 1.54 1.58 1.55 1.45 1.49 1.46 1.43 1.43 1.47 1.57 1.76 2.08 2.22 2.24 2.30 2.34 2.34 2.34 2.27
0.43 0.59 0.77 1.06 1.13 1.29 1.32 1.36 1.04 0.83 0.76 0.83 0.96 1.07 1.27 1.53 1.68 1.81 1.93 1.92 1.75 1.64 1.62 1.56 1.44 1.40 1.40 1.46 1.57 1.54 1.51 1.52 1.53 1.44 1.34 1.30 1.29 1.29 1.36 1.43 1.58 1.75 1.99 2.22 2.37 2.36 2.29 2.26 2.21
0.52 0.74 0.96 1.44 1.38 1.22 1.41 1.54 1.12 0.93 0.93 0.94 1.01 1.18 1.40 1.52 1.61 1.67 1.68 1.77 1.68 1.59 1.50 1.46 1.38 1.25 1.26 1.31 1.42 1.54 1.46 1.43 1.44 1.35 1.39 1.27 1.19 1.18 1.21 1.37 1.57 1.68 1.77 1.87 1.97 2.03 2.06 2.08 2.09

GEFSSGP_prec_meanprecacc_324.txt.gz
Total_Precipitation_Accumulation
1.91 1.88 2.61 3.66 4.29 3.84 3.44 2.79 2.25 1.92 1.59 1.25 0.99 0.97 1.43 1.97 2.53 2.94 2.83 2.57 1.98 1.69 1.79 2.59 3.27 2.92 2.54 2.42 2.53 2.80 2.71 2.67 2.50 2.45 2.31 2.14 1.84 1.71 1.67 1.49 1.41 1.43 1.32 1.22 1.27 1.46 1.40 1.39 1.45
1.80 2.53 3.46 4.48 4.19 3.43 3.26 2.63 2.21 1.76 1.19 0.95 0.75 0.77 0.99 1.03 1.00 1.55 2.68 2.74 1.86 1.52 1.61 2.19 3.18 2.82 2.65 2.61 2.66 2.68 2.66 2.73 2.54 2.40 2.21 2.03 1.83 1.82 1.84 1.82 1.79 1.63 1.40 1.31 1.30 1.47 1.40 1.29 1.39
1.95 3.21 4.38 4.44 3.36 3.01 3.20 2.56 1.85 1.32 0.90 0.88 0.82 0.71 0.89 1.20 1.28 1.98 2.78 2.37 1.70 1.46 1.59 2.47 3.22 2.85 2.68 2.66 2.65 2.54 2.63 2.71 2.52 2.29 2.05 1.86 1.87 2.13 2.17 2.04 1.91 1.67 1.46 1.34 1.32 1.39 1.41 1.31 1.29
2.36 3.61 3.84 3.41 3.04 2.57 2.36 2.08 1.56 1.48 1.10 0.78 0.76 0.82 0.81 1.20 1.46 1.94 2.14 1.87 1.67 1.66 1.68 2.49 3.25 3.01 2.77 2.67 2.59 2.55 2.62 2.73 2.66 2.35 2.05 1.89 1.91 2.00 2.02 1.94 1.81 1.61 1.45 1.34 1.39 1.41 1.37 1.33 1.27
2.80 3.47 3.49 3.08 2.87 2.51 1.85 1.63 1.45 1.62 1.45 0.96 0.77 1.05 1.24 1.65 1.77 1.82 1.85 1.84 1.59 1.61 1.68 2.17 2.94 2.89 2.70 2.59 2.54 2.67 2.72 2.70 2.67 2.43 2.11 1.99 1.97 1.94 1.98 1.89 1.76 1.48 1.40 1.36 1.46 1.47 1.39 1.29 1.28
3.11 3.14 3.40 3.24 3.04 2.62 2.08 1.69 1.52 1.53 1.35 1.01 0.94 1.18 1.58 2.16 2.18 2.07 1.79 1.81 1.76 1.62 1.59 1.89 2.52 2.77 2.68 2.65 2.58 2.66 2.72 2.69 2.54 2.21 2.03 1.92 1.96 1.99 1.99 1.88 1.76 1.51 1.46 1.44 1.40 1.41 1.37 1.33 1.34
2.98 2.99 2.96 2.72 2.95 3.14 2.46 1.64 1.66 1.56 1.47 1.21 0.94 1.29 1.65 2.34 2.17 2.06 1.91 1.86 1.93 1.83 1.80 1.93 2.24 2.47 2.85 2.91 2.76 2.76 2.80 2.72 2.50 2.12 2.02 1.93 1.90 1.79 1.80 1.79 1.69 1.54 1.51 1.41 1.32 1.32 1.32 1.39 1.41
2.34 2.43 2.37 2.44 2.84 3.03 2.18 1.36 1.23 1.43 1.47 1.00 0.85 1.22 1.62 2.00 1.94 2.01 2.06 2.05 1.96 1.90 1.88 1.81 1.96 2.08 2.38 2.60 2.85 2.96 2.89 2.77 2.58 2.19 2.04 1.96 1.89 1.73 1.67 1.55 1.56 1.54 1.56 1.57 1.43 1.37 1.38 1.46 1.49
2.17 2.53 2.66 2.82 2.69 2.48 1.68 1.38 1.21 1.09 1.16 0.98 0.87 1.00 1.40 1.48 1.62 1.96 2.17 2.15 1.90 1.73 1.65 1.58 1.67 1.82 2.04 2.30 2.51 2.82 2.79 2.70 2.49 2.13 2.06 2.00 1.79 1.51 1.48 1.42 1.74 1.65 1.66 1.66 1.62 1.60 1.55 1.47 1.39
2.26 2.66 2.63 2.26 1.79 1.69 1.45 1.29 1.21 1.15 1.25 1.21 1.09 1.15 1.48 1.66 1.72 1.88 1.94 1.84 1.66 1.71 1.57 1.41 1.45 1.58 1.71 1.87 2.39 2.49 2.17 2.02 1.85 1.96 1.91 1.84 1.79 1.60 1.22 1.38 1.80 1.90 1.87 1.68 1.61 1.67 1.44 1.10 0.95
1.79 2.02 1.76 1.73 1.38 1.21 1.23 1.18 1.07 1.27 1.46 1.22 1.20 1.28 1.60 1.80 1.71 1.75 1.72 1.59 1.52 1.48 1.40 1.30 1.31 1.28 1.29 1.49 1.85 2.09 2.11 2.04 1.84 1.72 1.68 1.74 1.66 1.45 1.23 1.32 1.44 1.44 1.38 1.26 1.27 1.19 0.96 0.87 0.93
1.55 1.47 1.26 1.38 1.20 1.18 1.23 1.12 1.08 1.15 1.24 0.96 1.04 1.25 1.57 1.74 1.72 1.64 1.54 1.48 1.38 1.28 1.24 1.17 1.11 1.08 1.05 1.16 1.27 1.39 1.64 1.73 1.68 1.45 1.30 1.36 1.47 1.41 1.23 1.24 1.27 1.29 1.25 1.31 1.29 1.21 1.07 1.02 1.01
1.70 1.51 1.31 1.26 1.20 1.15 1.12 1.09 1.01 0.99 0.92 0.93 1.04 1.36 1.66 1.88 1.98 1.92 1.63 1.36 1.23 1.24 1.22 1.11 0.97 0.98 1.00 1.10 1.18 1.10 1.32 1.48 1.54 1.48 1.27 1.19 1.23 1.27 1.21 1.09 1.18 1.20 1.18 1.18 1.18 1.14 1.17 1.24 1.21
1.56 1.42 1.39 1.36 1.23 1.08 1.12 1.07 1.00 1.16 1.02 1.03 1.09 1.28 1.41 1.60 1.67 1.62 1.58 1.33 1.14 1.11 1.17 1.09 1.02 1.06 1.03 0.99 1.04 1.05 1.11 1.24 1.25 1.36 1.31 1.25 1.21 1.19 1.19 1.16 1.22 1.26 1.26 1.20 1.12 1.07 1.21 1.25 1.28
1.24 1.49 1.52 1.42 1.26 1.14 1.07 1.30 1.18 1.22 1.16 1.22 1.21 1.19 1.28 1.36 1.43 1.34 1.22 1.05 1.02 1.00 0.98 0.93 0.93 1.02 1.03 1.02 1.03 1.03 1.16 1.21 1.20 1.22 1.18 1.27 1.22 1.20 1.21 1.22 1.25 1.26 1.32 1.32 1.29 1.24 1.30 1.32 1.40
1.38 1.71 1.95 1.57 1.34 1.28 1.34 1.60 1.36 1.32 1.31 1.20 1.15 1.16 1.18 1.25 1.35 1.34 1.23 1.01 0.94 0.89 0.87 0.86 0.75 0.87 1.01 1.10 1.15 1.24 1.30 1.30 1.32 1.22 1.14 1.14 1.13 1.14 1.22 1.24 1.27 1.34 1.32 1.36 1.44 1.45 1.50 1.51 1.55
1.68 1.72 1.68 1.61 1.32 1.31 1.37 1.42 1.29 1.34 1.30 1.13 1.02 1.01 0.97 1.04 1.10 1.12 1.14 1.05 0.96 0.90 0.90 0.92 0.85 0.90 1.02 1.08 1.23 1.33 1.42 1.50 1.58 1.49 1.45 1.39 1.26 1.28 1.39 1.45 1.43 1.45 1.50 1.51 1.42 1.43 1.54 1.67 1.66
1.54 1.25 1.27 1.36 1.23 1.17 1.23 1.13 1.13 1.25 1.25 1.14 0.98 0.91 0.84 0.88 0.90 0.90 0.96 1.01 1.00 0.96 0.94 0.99 1.05 1.07 1.20 1.36 1.58 1.80 1.93 2.06 2.16 2.08 1.97 1.79 1.56 1.52 1.69 1.74 1.61 1.63 1.75 1.85 1.71 1.79 1.69 1.62 1.70
0.95 0.92 0.98 0.94 0.86 0.96 0.94 0.94 0.97 0.99 1.04 0.97 0.81 0.78 0.80 0.78 0.80 0.82 0.86 0.94 0.98 0.97 0.95 0.94 1.00 1.10 1.21 1.42 1.73 2.24 2.52 2.60 2.47 2.42 2.32 2.11 1.87 1.85 2.04 2.07 2.05 2.05 2.07 2.04 1.96 2.14 2.10 1.82 1.72
0.81 0.89 0.89 0.85 0.76 0.81 0.77 0.76 0.75 0.75 0.73 0.70 0.63 0.62 0.72 0.72 0.81 0.80 0.79 0.82 0.84 0.83 0.86 1.01 1.06 1.12 1.23 1.48 1.78 2.16 2.58 2.64 2.57 2.46 2.36 2.26 2.13 2.08 2.12 2.35 2.47 2.43 2.62 2.64 2.41 2.52 2.55 2.17 1.94
0.77 0.83 0.83 0.91 0.88 0.77 0.72 0.79 0.76 0.68 0.60 0.53 0.50 0.53 0.60 0.60 0.67 0.73 0.78 0.80 0.78 0.75 0.72 0.85 1.02 1.22 1.50 1.78 2.07 2.25 2.54 2.64 2.63 2.49 2.42 2.43 2.37 2.25 2.32 2.43 2.59 2.59 2.67 2.88 3.00 2.89 2.96 2.75 2.32
0.81 0.58 0.55 0.65 0.96 1.03 0.77 0.95 0.77 0.62 0.65 0.58 0.53 0.50 0.53 0.56 0.60 0.64 0.73 0.78 0.74 0.69 0.67 0.76 0.91 1.20 1.59 1.93 2.15 2.41 2.77 2.87 2.71 2.62 2.52 2.52 2.52 2.50 2.61 2.62 2.69 2.70 2.71 2.82 2.98 2.96 3.14 3.26 2.84
0.59 0.51 0.52 0.59 0.80 0.88 0.69 0.72 0.71 0.61 0.67 0.64 0.56 0.54 0.50 0.49 0.48 0.54 0.57 0.61 0.65 0.72 0.75 0.83 1.03 1.31 1.63 1.85 2.11 2.45 2.65 2.75 2.81 2.68 2.62 2.60 2.63 2.63 2.68 2.74 2.87 2.85 2.82 2.75 2.97 3.06 3.17 3.13 3.08
0.44 0.57 0.67 0.68 0.82 0.89 0.51 0.57 0.70 0.60 0.48 0.49 0.52 0.52 0.47 0.44 0.43 0.50 0.58 0.64 0.71 0.77 0.89 1.00 1.17 1.36 1.61 1.83 2.10 2.25 2.44 2.58 2.63 2.66 2.59 2.54 2.58 2.68 2.56 2.48 2.67 2.73 2.74 2.70 2.86 3.00 3.15 3.13 3.18
0.49 0.83 1.18 1.17 1.14 0.89 0.44 0.55 0.68 0.48 0.37 0.40 0.44 0.47 0.44 0.46 0.52 0.62 0.73 0.86 0.97 1.01 1.08 1.19 1.30 1.48 1.63 1.74 1.90 2.00 2.10 2.21 2.18 2.32 2.37 2.48 2.47 2.50 2.51 2.43 2.44 2.48 2.42 2.41 2.52 2.57 2.66 2.80 2.99
0.43 0.66 1.09 1.20 1.00 0.76 0.58 0.77 0.74 0.47 0.39 0.40 0.41 0.46 0.50 0.58 0.67 0.84 1.01 1.18 1.25 1.28 1.34 1.39 1.44 1.51 1.56 1.61 1.71 1.84 1.90 1.95 1.92 1.90 1.90 2.05 2.20 2.22 2.27 2.30 2.27 2.31 2.33 2.28 2.38 2.40 2.40 2.45 2.51
0.45 0.53 0.58 0.77 0.67 0.67 0.67 0.77 0.72 0.51 0.47 0.46 0.49 0.55 0.64 0.84 0.94 1.10 1.28 1.39 1.36 1.36 1.38 1.44 1.49 1.51 1.51 1.55 1.61 1.58 1.62 1.67 1.68 1.65 1.72 1.76 1.81 1.81 1.85 1.90 2.05 2.17 2.22 2.24 2.34 2.41 2.38 2.31 2.29
0.42 0.56 0.73 1.03 1.13 0.98 0.79 0.89 0.89 0.70 0.58 0.52 0.60 0.72 0.88 1.15 1.31 1.48 1.67 1.65 1.58 1.60 1.66 1.58 1.50 1.51 1.57 1.61 1.61 1.53 1.55 1.58 1.57 1.47 1.51 1.48 1.44 1.45 1.50 1.59 1.78 2.09 2.23 2.25 2.30 2.34 2.35 2.35 2.28
0.44 0.61 0.78 1.08 1.15 1.31 1.34 1.37 1.04 0.83 0.77 0.84 0.97 1.08 1.27 1.53 1.69 1.82 1.93 1.92 1.76 1.65 1.63 1.57 1.45 1.42 1.43 1.50 1.61 1.57 1.52 1.54 1.56 1.47 1.37 1.33 1.32 1.32 1.40 1.46 1.61 1.78 2.01 2.23 2.38 2.37 2.29 2.27 2.22
0.53 0.76 0.98 1.47 1.40 1.23 1.42 1.54 1.13 0.94 0.93 0.96 1.04 1.20 1.41 1.53 1.62 1.67 1.69 1.77 1.69 1.60 1.50 1.47 1.39 1.25 1.27 1.34 1.45 1.56 1.48 1.45 1.47 1.39 1.42 1.32 1.22 1.22 1.24 1.39 1.58 1.69 1.77 1.87 1.98 2.04 2.07 2.09 2.11

GEFSSGP_prec_meanprecacc_330.txt.gz
Total_Precipitation_Accumulation
1.91 1.90 2.65 3.74 4.40 3.93 3.54 2.84 2.27 1.94 1.61 1.25 0.99 0.98 1.47 2.01 2.59 3.01 2.89 2.61 2.01 1.72 1.82 2.63 3.32 2.98 2.61 2.49 2.63 2.95 2.85 2.79 2.61 2.52 2.38 2.21 1.90 1.75 1.72 1.53 1.47 1.51 1.41 1.30 1.34 1.53 1.47 1.46 1.51
1.81 2.56 3.51 4.55 4.28 3.54 3.36 2.67 2.25 1.79 1.21 0.96 0.76 0.78 1.00 1.05 1.02 1.57 2.73 2.79 1.89 1.55 1.63 2.23 3.23 2.87 2.71 2.66 2.74 2.82 2.78 2.84 2.66 2.51 2.30 2.10 1.88 1.87 1.88 1.88 1.86 1.71 1.49 1.38 1.35 1.53 1.45 1.34 1.44
1.96 3.23 4.42 4.49 3.44 3.10 3.30 2.60 1.87 1.34 0.91 0.89 0.82 0.71 0.89 1.22 1.31 2.03 2.82 2.40 1.73 1.49 1.61 2.51 3.28 2.92 2.74 2.71 2.73 2.67 2.78 2.89 2.69 2.43 2.16 1.94 1.94 2.20 2.23 2.11 1.99 1.75 1.56 1.41 1.37 1.44 1.45 1.36 1.33
2.38 3.65 3.88 3.46 3.11 2.65 2.42 2.12 1.58 1.49 1.12 0.80 0.76 0.83 0.82 1.21 1.48 1.97 2.17 1.89 1.70 1.69 1.71 2.52 3.29 3.07 2.84 2.74 2.66 2.63 2.73 2.89 2.82 2.48 2.16 2.01 2.01 2.08 2.11 2.02 1.88 1.69 1.55 1.42 1.47 1.46 1.40 1.38 1.31
2.84 3.52 3.55 3.13 2.94 2.57 1.89 1.66 1.48 1.65 1.48 0.98 0.78 1.06 1.26 1.66 1.78 1.84 1.87 1.86 1.62 1.64 1.70 2.19 2.97 2.95 2.76 2.66 2.61 2.74 2.79 2.79 2.78 2.54 2.22 2.10 2.06 2.01 2.04 1.95 1.82 1.56 1.49 1.43 1.52 1.51 1.44 1.34 1.32
3.14 3.18 3.45 3.31 3.10 2.68 2.11 1.72 1.54 1.56 1.38 1.03 0.95 1.20 1.60 2.18 2.20 2.09 1.81 1.82 1.78 1.64 1.61 1.92 2.56 2.82 2.73 2.70 2.64 2.73 2.79 2.75 2.61 2.29 2.11 1.99 2.02 2.03 2.02 1.92 1.82 1.57 1.54 1.50 1.44 1.45 1.42 1.37 1.38
3.02 3.03 3.01 2.77 3.02 3.21 2.50 1.67 1.70 1.59 1.50 1.22 0.95 1.31 1.67 2.37 2.20 2.09 1.93 1.87 1.95 1.84 1.83 1.97 2.30 2.53 2.90 2.96 2.80 2.80 2.85 2.76 2.54 2.18 2.08 1.98 1.95 1.83 1.83 1.82 1.72 1.59 1.57 1.45 1.36 1.35 1.36 1.43 1.45
2.35 2.46 2.39 2.48 2.91 3.10 2.21 1.38 1.25 1.45 1.49 1.01 0.85 1.23 1.65 2.03 1.96 2.04 2.08 2.08 1.97 1.90 1.90 1.85 1.99 2.12 2.42 2.65 2.88 2.99 2.92 2.81 2.62 2.23 2.07 2.00 1.93 1.77 1.70 1.57 1.59 1.57 1.60 1.59 1.45 1.39 1.40 1.49 1.52
2.17 2.56 2.71 2.85 2.74 2.52 1.70 1.40 1.23 1.10 1.17 0.98 0.87 1.01 1.41 1.51 1.65 1.98 2.19 2.17 1.91 1.75 1.66 1.60 1.70 1.85 2.07 2.33 2.54 2.85 2.81 2.72 2.52 2.16 2.09 2.04 1.84 1.57 1.52 1.44 1.76 1.68 1.68 1.66 1.63 1.61 1.56 1.51 1.43
2.27 2.69 2.66 2.28 1.80 1.70 1.45 1.30 1.22 1.16 1.26 1.22 1.10 1.16 1.50 1.68 1.76 1.91 1.97 1.87 1.70 1.74 1.59 1.42 1.45 1.59 1.72 1.88 2.42 2.53 2.20 2.04 1.87 1.98 1.94 1.87 1.84 1.64 1.25 1.41 1.83 1.92 1.88 1.69 1.61 1.68 1.45 1.14 1.02
1.79 2.03 1.76 1.73 1.38 1.21 1.24 1.18 1.08 1.28 1.49 1.23 1.21 1.29 1.61 1.82 1.74 1.77 1.75 1.62 1.55 1.51 1.43 1.31 1.31 1.29 1.30 1.50 1.87 2.13 2.15 2.07 1.86 1.74 1.70 1.76 1.69 1.49 1.28 1.37 1.49 1.48 1.40 1.28 1.28 1.20 0.98 0.89 0.96
1.56 1.48 1.26 1.39 1.20 1.18 1.23 1.12 1.08 1.16 1.26 0.97 1.05 1.26 1.58 1.75 1.73 1.66 1.56 1.51 1.40 1.30 1.25 1.18 1.11 1.08 1.06 1.17 1.28 1.41 1.65 1.74 1.69 1.47 1.31 1.38 1.52 1.45 1.27 1.28 1.31 1.32 1.29 1.35 1.33 1.22 1.08 1.03 1.02
1.71 1.52 1.31 1.26 1.20 1.15 1.12 1.09 1.01 0.99 0.92 0.94 1.05 1.37 1.67 1.89 2.00 1.94 1.65 1.38 1.25 1.27 1.23 1.12 0.98 0.98 1.01 1.11 1.20 1.13 1.33 1.49 1.54 1.49 1.28 1.21 1.27 1.31 1.25 1.11 1.20 1.23 1.23 1.22 1.22 1.17 1.18 1.26 1.22
1.56 1.42 1.39 1.36 1.23 1.08 1.12 1.07 1.00 1.16 1.02 1.03 1.09 1.29 1.42 1.60 1.69 1.64 1.59 1.34 1.17 1.14 1.19 1.10 1.03 1.07 1.04 1.00 1.06 1.07 1.12 1.24 1.25 1.37 1.31 1.26 1.24 1.23 1.22 1.18 1.24 1.30 1.30 1.24 1.16 1.10 1.23 1.27 1.29
1.24 1.49 1.53 1.42 1.26 1.14 1.08 1.32 1.18 1.23 1.17 1.22 1.21 1.20 1.28 1.36 1.44 1.35 1.22 1.06 1.04 1.02 1.00 0.95 0.94 1.04 1.04 1.03 1.05 1.06 1.18 1.21 1.20 1.23 1.19 1.28 1.24 1.22 1.24 1.25 1.27 1.27 1.33 1.36 1.33 1.27 1.33 1.34 1.43
1.39 1.73 1.97 1.58 1.35 1.28 1.35 1.62 1.36 1.32 1.31 1.20 1.15 1.17 1.20 1.25 1.36 1.35 1.24 1.03 0.95 0.89 0.88 0.87 0.76 0.88 1.02 1.11 1.17 1.26 1.32 1.33 1.33 1.24 1.15 1.14 1.13 1.15 1.24 1.25 1.28 1.35 1.33 1.38 1.47 1.47 1.52 1.54 1.58
1.71 1.75 1.71 1.63 1.32 1.31 1.38 1.44 1.29 1.34 1.30 1.14 1.03 1.02 0.98 1.04 1.10 1.13 1.15 1.06 0.96 0.90 0.90 0.93 0.86 0.91 1.03 1.09 1.24 1.35 1.45 1.55 1.61 1.51 1.47 1.40 1.27 1.29 1.41 1.46 1.44 1.46 1.51 1.52 1.45 1.47 1.59 1.70 1.68
1.57 1.28 1.29 1.38 1.24 1.17 1.24 1.14 1.14 1.27 1.27 1.17 1.00 0.92 0.85 0.88 0.91 0.91 0.97 1.02 1.01 0.96 0.94 0.99 1.05 1.08 1.21 1.38 1.61 1.84 1.96 2.09 2.18 2.09 1.98 1.80 1.57 1.53 1.71 1.75 1.62 1.65 1.77 1.87 1.74 1.83 1.73 1.65 1.72
0.97 0.93 0.99 0.95 0.86 0.97 0.95 0.95 0.97 1.00 1.10 1.03 0.86 0.81 0.81 0.79 0.80 0.83 0.87 0.96 1.01 0.99 0.96 0.94 1.00 1.10 1.23 1.46 1.77 2.28 2.55 2.62 2.49 2.43 2.33 2.12 1.89 1.87 2.06 2.09 2.07 2.07 2.09 2.07 1.99 2.18 2.13 1.85 1.74
0.82 0.90 0.91 0.86 0.77 0.82 0.78 0.77 0.75 0.75 0.76 0.77 0.69 0.67 0.73 0.73 0.81 0.80 0.80 0.83 0.87 0.84 0.88 1.02 1.07 1.12 1.24 1.50 1.80 2.18 2.61 2.67 2.60 2.48 2.38 2.27 2.14 2.10 2.14 2.37 2.49 2.45 2.65 2.67 2.44 2.55 2.57 2.20 1.97
0.77 0.83 0.84 0.91 0.89 0.78 0.72 0.80 0.77 0.69 0.62 0.59 0.58 0.57 0.61 0.60 0.68 0.73 0.78 0.80 0.79 0.76 0.73 0.86 1.03 1.23 1.51 1.79 2.09 2.28 2.57 2.67 2.65 2.51 2.43 2.44 2.38 2.25 2.32 2.44 2.61 2.62 2.71 2.92 3.04 2.92 2.99 2.78 2.35
0.82 0.58 0.55 0.65 0.97 1.06 0.79 0.98 0.78 0.64 0.69 0.64 0.57 0.53 0.54 0.56 0.60 0.65 0.73 0.78 0.74 0.69 0.68 0.77 0.92 1.21 1.60 1.94 2.17 2.43 2.80 2.90 2.74 2.64 2.53 2.52 2.53 2.50 2.61 2.62 2.70 2.72 2.73 2.85 3.01 2.99 3.16 3.28 2.87
0.60 0.51 0.53 0.60 0.82 0.91 0.71 0.74 0.72 0.62 0.68 0.65 0.57 0.56 0.53 0.49 0.48 0.54 0.59 0.62 0.66 0.73 0.76 0.84 1.04 1.32 1.65 1.86 2.12 2.46 2.66 2.77 2.83 2.71 2.63 2.61 2.63 2.63 2.68 2.75 2.87 2.86 2.84 2.78 2.99 3.09 3.20 3.15 3.11
0.45 0.58 0.68 0.70 0.85 0.92 0.53 0.60 0.72 0.61 0.49 0.50 0.53 0.53 0.49 0.44 0.43 0.51 0.63 0.66 0.72 0.78 0.90 1.01 1.18 1.38 1.63 1.85 2.11 2.26 2.45 2.60 2.66 2.68 2.61 2.55 2.59 2.68 2.56 2.48 2.67 2.73 2.75 2.71 2.86 3.01 3.17 3.16 3.20
0.50 0.85 1.22 1.22 1.20 0.93 0.46 0.57 0.69 0.49 0.38 0.41 0.45 0.48 0.45 0.47 0.53 0.63 0.76 0.90 0.98 1.02 1.09 1.19 1.31 1.50 1.65 1.76 1.92 2.01 2.11 2.24 2.21 2.35 2.39 2.49 2.48 2.50 2.52 2.43 2.45 2.49 2.42 2.41 2.53 2.57 2.67 2.82 3.01
0.45 0.67 1.13 1.25 1.05 0.80 0.60 0.79 0.75 0.48 0.40 0.41 0.44 0.48 0.50 0.59 0.69 0.84 1.01 1.19 1.28 1.31 1.35 1.41 1.45 1.53 1.57 1.62 1.73 1.85 1.92 1.98 1.95 1.93 1.92 2.07 2.22 2.23 2.28 2.31 2.27 2.32 2.34 2.29 2.39 2.40 2.41 2.46 2.53
0.47 0.54 0.59 0.79 0.69 0.70 0.69 0.78 0.73 0.51 0.48 0.47 0.50 0.56 0.65 0.85 0.95 1.11 1.28 1.40 1.38 1.40 1.41 1.47 1.52 1.53 1.53 1.56 1.62 1.59 1.63 1.69 1.71 1.69 1.75 1.78 1.83 1.83 1.87 1.92 2.06 2.18 2.23 2.24 2.35 2.42 2.39 2.32 2.30
0.43 0.58 0.74 1.05 1.16 1.01 0.81 0.90 0.90 0.70 0.58 0.53 0.61 0.73 0.90 1.16 1.32 1.49 1.68 1.66 1.60 1.61 1.69 1.61 1.54 1.54 1.59 1.61 1.61 1.54 1.56 1.60 1.59 1.51 1.56 1.52 1.48 1.47 1.52 1.61 1.80 2.10 2.24 2.26 2.32 2.36 2.36 2.36 2.29
0.45 0.62 0.79 1.11 1.18 1.34 1.36 1.38 1.05 0.84 0.78 0.86 0.99 1.10 1.28 1.54 1.70 1.82 1.94 1.94 1.78 1.66 1.65 1.58 1.48 1.44 1.44 1.51 1.61 1.58 1.53 1.55 1.57 1.50 1.42 1.38 1.36 1.35 1.42 1.48 1.63 1.80 2.03 2.25 2.39 2.38 2.30 2.27 2.23
0.54 0.77 0.99 1.49 1.42 1.25 1.44 1.56 1.13 0.94 0.94 0.96 1.05 1.21 1.42 1.54 1.63 1.69 1.70 1.80 1.72 1.61 1.52 1.48 1.40 1.26 1.28 1.34 1.45 1.57 1.49 1.47 1.48 1.40 1.45 1.35 1.27 1.25 1.26 1.40 1.60 1.71 1.79 1.90 1.99 2.05 2.08 2.10 2.12

GEFSSGP_prec_meanprecacc_336.txt.gz
Total_Precipitation_Accumulation
1.92 1.92 2.68 3.79 4.46 3.99 3.61 2.90 2.30 1.96 1.62 1.26 1.00 1.00 1.49 2.04 2.63 3.03 2.93 2.69 2.06 1.76 1.84 2.67 3.39 3.03 2.66 2.55 2.69 3.00 2.91 2.90 2.77 2.67 2.49 2.26 1.93 1.78 1.75 1.56 1.51 1.55 1.45 1.33 1.39 1.58 1.52 1.50 1.55
1.82 2.59 3.57 4.61 4.34 3.59 3.45 2.73 2.27 1.81 1.23 0.98 0.78 0.79 1.02 1.06 1.04 1.59 2.78 2.86 1.93 1.57 1.65 2.26 3.29 2.93 2.77 2.72 2.80 2.88 2.86 2.92 2.74 2.60 2.36 2.15 1.92 1.91 1.93 1.92 1.91 1.76 1.53 1.41 1.39 1.58 1.49 1.38 1.48
1.97 3.26 4.48 4.55 3.50 3.16 3.39 2.69 1.90 1.36 0.94 0.92 0.84 0.73 0.91 1.24 1.33 2.04 2.87 2.45 1.76 1.50 1.62 2.53 3.31 2.96 2.79 2.77 2.81 2.79 2.93 3.00 2.78 2.50 2.21 1.98 1.97 2.24 2.28 2.15 2.02 1.79 1.61 1.46 1.41 1.48 1.49 1.40 1.37
2.42 3.69 3.91 3.50 3.16 2.72 2.49 2.20 1.62 1.52 1.15 0.83 0.77 0.84 0.83 1.24 1.50 1.99 2.21 1.90 1.72 1.70 1.72 2.54 3.33 3.11 2.88 2.78 2.72 2.73 2.89 3.02 2.93 2.57 2.23 2.06 2.06 2.13 2.16 2.07 1.93 1.73 1.61 1.48 1.50 1.48 1.43 1.41 1.35
2.89 3.56 3.58 3.16 2.97 2.62 1.94 1.70 1.51 1.67 1.50 1.00 0.79 1.07 1.28 1.69 1.81 1.87 1.89 1.87 1.63 1.65 1.72 2.21 3.01 2.98 2.78 2.68 2.65 2.80 2.88 2.88 2.86 2.61 2.28 2.16 2.13 2.07 2.12 2.03 1.88 1.61 1.55 1.48 1.56 1.54 1.46 1.36 1.35
3.19 3.20 3.48 3.33 3.13 2.73 2.19 1.76 1.59 1.58 1.39 1.04 0.96 1.21 1.63 2.23 2.24 2.13 1.82 1.84 1.79 1.65 1.62 1.93 2.59 2.86 2.75 2.72 2.67 2.77 2.84 2.81 2.67 2.36 2.17 2.07 2.10 2.09 2.07 1.97 1.87 1.61 1.60 1.56 1.49 1.50 1.45 1.40 1.41
3.08 3.06 3.02 2.79 3.05 3.27 2.57 1.73 1.74 1.62 1.53 1.25 0.96 1.32 1.70 2.43 2.25 2.11 1.94 1.89 1.96 1.85 1.84 1.98 2.31 2.55 2.93 2.98 2.83 2.84 2.90 2.81 2.58 2.22 2.14 2.04 2.01 1.88 1.87 1.86 1.76 1.62 1.60 1.49 1.39 1.39 1.39 1.45 1.47
2.38 2.47 2.40 2.49 2.94 3.14 2.25 1.42 1.29 1.48 1.52 1.04 0.88 1.25 1.67 2.07 2.00 2.07 2.11 2.11 1.98 1.91 1.91 1.85 2.00 2.12 2.43 2.67 2.92 3.04 2.96 2.85 2.66 2.28 2.12 2.04 1.97 1.82 1.73 1.60 1.62 1.60 1.62 1.61 1.47 1.40 1.43 1.52 1.55
2.19 2.58 2.75 2.88 2.76 2.55 1.73 1.44 1.27 1.13 1.19 1.00 0.90 1.02 1.43 1.53 1.68 2.02 2.23 2.21 1.94 1.76 1.68 1.61 1.70 1.85 2.08 2.34 2.56 2.88 2.85 2.75 2.54 2.19 2.13 2.07 1.86 1.59 1.54 1.46 1.80 1.71 1.70 1.69 1.65 1.63 1.58 1.53 1.46
2.29 2.74 2.70 2.30 1.81 1.73 1.48 1.34 1.28 1.20 1.29 1.25 1.12 1.18 1.53 1.71 1.79 1.94 2.00 1.89 1.73 1.77 1.62 1.44 1.46 1.60 1.73 1.88 2.43 2.55 2.22 2.05 1.87 1.99 1.96 1.89 1.86 1.67 1.27 1.42 1.85 1.94 1.89 1.70 1.63 1.69 1.47 1.15 1.03
1.80 2.05 1.78 1.74 1.40 1.23 1.25 1.20 1.10 1.32 1.55 1.26 1.25 1.35 1.66 1.87 1.77 1.80 1.78 1.66 1.58 1.54 1.46 1.33 1.32 1.30 1.31 1.51 1.88 2.14 2.16 2.08 1.86 1.75 1.71 1.78 1.71 1.50 1.29 1.38 1.50 1.48 1.41 1.29 1.29 1.21 0.99 0.90 0.97
1.57 1.49 1.27 1.40 1.22 1.20 1.24 1.12 1.09 1.17 1.29 0.99 1.08 1.31 1.61 1.79 1.76 1.68 1.59 1.55 1.45 1.34 1.28 1.20 1.14 1.10 1.07 1.17 1.29 1.41 1.66 1.74 1.70 1.48 1.32 1.40 1.53 1.47 1.29 1.29 1.32 1.33 1.30 1.37 1.34 1.23 1.09 1.03 1.03
1.73 1.52 1.31 1.26 1.21 1.16 1.13 1.10 1.02 1.00 0.93 0.95 1.07 1.40 1.70 1.92 2.03 1.98 1.68 1.41 1.29 1.31 1.26 1.14 1.01 1.01 1.03 1.13 1.21 1.13 1.34 1.50 1.56 1.50 1.30 1.23 1.29 1.34 1.27 1.12 1.21 1.24 1.25 1.24 1.24 1.18 1.19 1.26 1.23
1.58 1.43 1.39 1.37 1.23 1.09 1.13 1.08 1.01 1.17 1.03 1.03 1.10 1.32 1.46 1.69 1.76 1.68 1.63 1.36 1.18 1.15 1.22 1.13 1.06 1.11 1.07 1.03 1.08 1.08 1.13 1.25 1.26 1.38 1.32 1.28 1.26 1.25 1.25 1.20 1.25 1.31 1.32 1.26 1.19 1.12 1.24 1.27 1.30
1.25 1.50 1.53 1.43 1.27 1.15 1.08 1.32 1.20 1.24 1.18 1.23 1.23 1.22 1.32 1.44 1.51 1.40 1.27 1.10 1.06 1.04 1.03 0.97 0.97 1.08 1.07 1.07 1.07 1.07 1.20 1.24 1.21 1.24 1.19 1.28 1.25 1.23 1.26 1.27 1.29 1.29 1.35 1.39 1.37 1.30 1.34 1.35 1.44
1.40 1.75 1.98 1.58 1.35 1.28 1.36 1.63 1.37 1.34 1.33 1.22 1.18 1.19 1.23 1.29 1.39 1.38 1.28 1.07 0.98 0.92 0.90 0.89 0.78 0.90 1.05 1.14 1.19 1.28 1.35 1.36 1.35 1.25 1.16 1.15 1.14 1.16 1.24 1.26 1.29 1.37 1.35 1.40 1.50 1.51 1.54 1.55 1.59
1.73 1.77 1.73 1.64 1.32 1.32 1.39 1.44 1.30 1.35 1.32 1.17 1.06 1.05 1.01 1.06 1.12 1.16 1.18 1.12 1.01 0.94 0.93 0.94 0.87 0.92 1.05 1.12 1.27 1.38 1.50 1.58 1.64 1.53 1.49 1.41 1.28 1.30 1.41 1.47 1.45 1.47 1.53 1.54 1.47 1.50 1.61 1.71 1.69
1.60 1.30 1.31 1.40 1.25 1.19 1.26 1.14 1.14 1.28 1.29 1.22 1.06 0.98 0.90 0.93 0.94 0.94 1.01 1.06 1.06 1.01 0.98 1.02 1.08 1.10 1.23 1.40 1.63 1.86 1.99 2.12 2.20 2.11 2.00 1.83 1.60 1.56 1.73 1.77 1.64 1.67 1.79 1.88 1.76 1.85 1.75 1.67 1.74
0.98 0.95 1.02 0.98 0.88 0.99 0.98 0.96 0.98 1.01 1.11 1.06 0.91 0.88 0.88 0.85 0.86 0.87 0.90 0.99 1.07 1.06 1.02 0.98 1.03 1.13 1.25 1.47 1.79 2.30 2.59 2.66 2.52 2.45 2.36 2.15 1.93 1.91 2.09 2.11 2.10 2.08 2.09 2.07 1.99 2.20 2.14 1.87 1.77
0.85 0.93 0.93 0.88 0.79 0.85 0.80 0.79 0.77 0.76 0.77 0.78 0.71 0.72 0.81 0.81 0.86 0.84 0.83 0.87 0.93 0.91 0.93 1.07 1.12 1.17 1.28 1.53 1.82 2.20 2.63 2.71 2.64 2.51 2.40 2.29 2.17 2.13 2.16 2.39 2.50 2.46 2.65 2.67 2.45 2.55 2.58 2.21 1.98
0.80 0.87 0.88 0.95 0.91 0.81 0.75 0.83 0.79 0.70 0.64 0.60 0.62 0.65 0.69 0.66 0.73 0.77 0.81 0.84 0.83 0.80 0.77 0.90 1.07 1.27 1.55 1.83 2.12 2.30 2.59 2.69 2.68 2.55 2.47 2.48 2.41 2.27 2.34 2.45 2.62 2.62 2.71 2.92 3.04 2.93 3.00 2.79 2.36
0.85 0.60 0.57 0.68 1.01 1.08 0.80 1.00 0.80 0.66 0.71 0.68 0.65 0.64 0.64 0.63 0.67 0.70 0.77 0.82 0.78 0.72 0.71 0.80 0.95 1.24 1.63 1.97 2.20 2.45 2.81 2.91 2.76 2.66 2.54 2.55 2.57 2.55 2.65 2.65 2.71 2.72 2.74 2.85 3.01 3.00 3.17 3.29 2.88
0.63 0.53 0.55 0.63 0.86 0.93 0.72 0.76 0.73 0.64 0.70 0.68 0.60 0.59 0.58 0.55 0.53 0.57 0.62 0.67 0.71 0.77 0.79 0.87 1.07 1.35 1.67 1.89 2.15 2.49 2.68 2.79 2.85 2.72 2.65 2.63 2.66 2.67 2.73 2.77 2.88 2.87 2.84 2.78 2.99 3.09 3.20 3.16 3.11
0.47 0.59 0.70 0.72 0.88 0.94 0.54 0.61 0.74 0.63 0.51 0.51 0.54 0.54 0.51 0.48 0.46 0.55 0.66 0.72 0.80 0.84 0.94 1.06 1.20 1.40 1.65 1.86 2.12 2.28 2.46 2.62 2.67 2.70 2.62 2.58 2.63 2.72 2.60 2.51 2.68 2.74 2.75 2.71 2.87 3.01 3.17 3.16 3.20
0.50 0.87 1.25 1.25 1.22 0.95 0.46 0.58 0.71 0.50 0.39 0.42 0.46 0.49 0.47 0.50 0.56 0.68 0.83 0.99 1.05 1.08 1.13 1.23 1.34 1.52 1.66 1.77 1.93 2.02 2.12 2.25 2.22 2.36 2.40 2.52 2.52 2.55 2.57 2.48 2.48 2.51 2.44 2.42 2.53 2.58 2.67 2.82 3.02
0.45 0.68 1.15 1.27 1.06 0.81 0.60 0.80 0.76 0.49 0.41 0.42 0.44 0.48 0.52 0.62 0.73 0.88 1.05 1.28 1.37 1.40 1.41 1.43 1.49 1.55 1.58 1.63 1.73 1.86 1.93 1.98 1.95 1.93 1.94 2.10 2.25 2.27 2.33 2.37 2.33 2.36 2.37 2.32 2.41 2.41 2.42 2.47 2.53
0.48 0.55 0.60 0.81 0.71 0.72 0.70 0.79 0.74 0.53 0.49 0.49 0.51 0.57 0.67 0.87 1.00 1.14 1.31 1.44 1.45 1.52 1.52 1.52 1.55 1.56 1.55 1.58 1.62 1.60 1.64 1.69 1.71 1.69 1.76 1.80 1.86 1.87 1.92 1.97 2.11 2.23 2.26 2.27 2.38 2.44 2.40 2.33 2.31
0.43 0.58 0.75 1.07 1.19 1.02 0.82 0.91 0.91 0.72 0.59 0.54 0.61 0.73 0.90 1.17 1.34 1.51 1.69 1.69 1.64 1.67 1.75 1.69 1.62 1.59 1.63 1.64 1.62 1.55 1.57 1.60 1.59 1.51 1.57 1.53 1.49 1.51 1.58 1.66 1.85 2.14 2.27 2.28 2.33 2.38 2.38 2.38 2.30
0.46 0.62 0.80 1.12 1.20 1.35 1.37 1.39 1.06 0.85 0.79 0.87 0.99 1.11 1.29 1.54 1.72 1.85 1.96 1.97 1.82 1.71 1.69 1.63 1.55 1.52 1.50 1.55 1.64 1.59 1.54 1.56 1.58 1.50 1.42 1.40 1.39 1.38 1.46 1.54 1.69 1.85 2.07 2.28 2.41 2.39 2.33 2.30 2.26
0.55 0.77 1.00 1.50 1.43 1.26 1.46 1.59 1.16 0.96 0.95 0.98 1.06 1.22 1.42 1.55 1.64 1.70 1.73 1.83 1.75 1.66 1.55 1.52 1.44 1.31 1.33 1.39 1.50 1.59 1.50 1.47 1.49 1.41 1.46 1.37 1.29 1.28 1.30 1.45 1.66 1.78 1.86 1.95 2.03 2.09 2.12 2.13 2.15

GEFSSGP_prec_meanprecacc_342.txt.gz
Total_Precipitation_Accumulation
1.93 1.93 2.70 3.81 4.47 4.00 3.62 2.91 2.31 1.96 1.63 1.27 1.02 1.02 1.52 2.07 2.65 3.05 2.95 2.71 2.08 1.79 1.88 2.73 3.47 3.11 2.74 2.61 2.75 3.09 3.01 3.10 2.97 2.83 2.65 2.39 2.01 1.84 1.82 1.63 1.57 1.61 1.50 1.38 1.45 1.66 1.60 1.56 1.61
1.83 2.60 3.59 4.63 4.35 3.59 3.45 2.74 2.27 1.82 1.24 0.99 0.79 0.82 1.06 1.07 1.05 1.61 2.79 2.88 1.95 1.59 1.67 2.27 3.33 2.98 2.83 2.80 2.90 2.98 2.99 3.10 2.95 2.78 2.50 2.25 1.99 1.96 1.98 1.99 1.98 1.82 1.59 1.47 1.45 1.64 1.57 1.43 1.52
1.98 3.28 4.49 4.55 3.50 3.17 3.40 2.70 1.91 1.38 0.95 0.93 0.85 0.77 0.95 1.25 1.34 2.06 2.89 2.48 1.79 1.51 1.63 2.55 3.34 3.01 2.85 2.83 2.89 2.91 3.07 3.13 2.94 2.66 2.31 2.07 2.06 2.31 2.34 2.21 2.08 1.85 1.67 1.51 1.45 1.53 1.56 1.46 1.41
2.44 3.71 3.93 3.51 3.17 2.72 2.50 2.21 1.64 1.55 1.17 0.84 0.79 0.88 0.86 1.26 1.52 2.00 2.22 1.92 1.73 1.72 1.73 2.55 3.36 3.16 2.94 2.83 2.79 2.88 3.03 3.14 3.06 2.72 2.36 2.18 2.16 2.21 2.24 2.13 1.98 1.78 1.68 1.54 1.55 1.53 1.51 1.50 1.42
2.90 3.59 3.62 3.17 2.98 2.63 1.95 1.71 1.53 1.72 1.54 1.02 0.80 1.10 1.29 1.72 1.82 1.88 1.90 1.87 1.63 1.66 1.73 2.24 3.05 3.04 2.84 2.73 2.76 2.97 3.00 3.00 2.97 2.74 2.42 2.28 2.23 2.15 2.20 2.10 1.94 1.65 1.60 1.54 1.61 1.58 1.51 1.41 1.41
3.20 3.21 3.49 3.34 3.14 2.74 2.21 1.78 1.61 1.61 1.42 1.06 0.98 1.22 1.65 2.26 2.27 2.15 1.83 1.84 1.79 1.66 1.63 1.98 2.65 2.91 2.80 2.79 2.75 2.87 2.95 2.92 2.76 2.44 2.27 2.18 2.20 2.18 2.15 2.06 1.93 1.65 1.64 1.60 1.53 1.54 1.48 1.43 1.44
3.08 3.06 3.02 2.79 3.06 3.28 2.59 1.74 1.75 1.63 1.55 1.26 0.98 1.33 1.72 2.45 2.27 2.13 1.95 1.90 1.96 1.86 1.85 2.00 2.33 2.58 2.98 3.05 2.88 2.90 2.98 2.90 2.65 2.28 2.20 2.12 2.10 1.97 1.96 1.93 1.82 1.66 1.63 1.52 1.42 1.41 1.41 1.48 1.50
2.39 2.47 2.40 2.49 2.95 3.17 2.26 1.43 1.30 1.50 1.55 1.05 0.89 1.25 1.69 2.08 2.01 2.08 2.12 2.12 1.99 1.92 1.92 1.87 2.01 2.14 2.45 2.70 2.95 3.09 3.02 2.91 2.72 2.33 2.17 2.09 2.02 1.87 1.80 1.67 1.68 1.65 1.65 1.63 1.49 1.42 1.45 1.55 1.58
2.20 2.58 2.75 2.89 2.77 2.57 1.74 1.46 1.29 1.15 1.21 1.01 0.91 1.03 1.44 1.54 1.69 2.03 2.24 2.22 1.95 1.77 1.69 1.63 1.71 1.86 2.09 2.36 2.59 2.92 2.89 2.80 2.59 2.24 2.17 2.10 1.88 1.60 1.56 1.50 1.85 1.76 1.74 1.71 1.67 1.65 1.61 1.57 1.50
2.30 2.74 2.70 2.30 1.82 1.74 1.50 1.36 1.29 1.22 1.31 1.26 1.13 1.20 1.54 1.73 1.80 1.95 2.02 1.90 1.73 1.78 1.63 1.45 1.47 1.60 1.74 1.90 2.44 2.56 2.23 2.07 1.90 2.02 1.98 1.90 1.87 1.68 1.29 1.46 1.89 1.97 1.92 1.72 1.64 1.71 1.49 1.18 1.06
1.81 2.05 1.78 1.75 1.40 1.24 1.27 1.22 1.11 1.34 1.58 1.29 1.27 1.38 1.70 1.92 1.81 1.82 1.79 1.67 1.59 1.55 1.47 1.35 1.34 1.32 1.32 1.52 1.90 2.15 2.17 2.10 1.88 1.77 1.73 1.79 1.72 1.53 1.31 1.40 1.51 1.49 1.42 1.29 1.30 1.22 1.00 0.91 0.98
1.57 1.49 1.27 1.40 1.23 1.20 1.25 1.14 1.10 1.20 1.32 1.04 1.13 1.35 1.66 1.84 1.80 1.71 1.61 1.58 1.48 1.37 1.30 1.22 1.17 1.14 1.11 1.19 1.30 1.43 1.68 1.76 1.71 1.50 1.33 1.41 1.55 1.49 1.30 1.31 1.33 1.34 1.30 1.38 1.35 1.24 1.10 1.04 1.03
1.73 1.53 1.31 1.27 1.22 1.17 1.14 1.11 1.03 1.02 0.95 0.97 1.08 1.42 1.73 1.96 2.07 2.02 1.72 1.45 1.33 1.34 1.29 1.17 1.03 1.05 1.08 1.17 1.24 1.15 1.36 1.52 1.57 1.52 1.31 1.24 1.30 1.35 1.28 1.14 1.24 1.26 1.26 1.26 1.25 1.19 1.20 1.27 1.24
1.58 1.43 1.40 1.38 1.24 1.09 1.13 1.10 1.03 1.18 1.04 1.04 1.11 1.33 1.48 1.72 1.81 1.73 1.68 1.41 1.22 1.19 1.26 1.17 1.12 1.16 1.11 1.07 1.12 1.10 1.14 1.26 1.28 1.39 1.34 1.29 1.27 1.26 1.27 1.22 1.27 1.34 1.34 1.29 1.22 1.15 1.26 1.29 1.31
1.26 1.51 1.54 1.44 1.27 1.16 1.09 1.33 1.22 1.26 1.19 1.24 1.23 1.23 1.34 1.46 1.54 1.44 1.33 1.17 1.13 1.10 1.08 1.02 1.02 1.11 1.09 1.08 1.10 1.09 1.22 1.26 1.23 1.25 1.21 1.30 1.27 1.24 1.28 1.29 1.31 1.31 1.38 1.42 1.41 1.33 1.36 1.37 1.45
1.42 1.77 2.00 1.60 1.36 1.29 1.37 1.64 1.38 1.35 1.34 1.23 1.19 1.20 1.24 1.30 1.40 1.40 1.30 1.10 1.02 0.97 0.95 0.94 0.81 0.92 1.06 1.15 1.21 1.30 1.37 1.38 1.37 1.26 1.18 1.17 1.16 1.17 1.25 1.28 1.31 1.39 1.37 1.44 1.54 1.54 1.57 1.56 1.60
1.74 1.78 1.74 1.65 1.33 1.33 1.41 1.45 1.31 1.36 1.34 1.18 1.07 1.06 1.02 1.07 1.13 1.17 1.20 1.14 1.03 0.97 0.97 1.00 0.92 0.95 1.07 1.15 1.29 1.40 1.52 1.61 1.66 1.55 1.51 1.43 1.31 1.32 1.43 1.48 1.46 1.49 1.55 1.57 1.50 1.52 1.64 1.73 1.70
1.60 1.31 1.31 1.40 1.25 1.20 1.26 1.15 1.16 1.29 1.30 1.24 1.07 0.99 0.91 0.94 0.95 0.96 1.03 1.08 1.08 1.04 1.04 1.10 1.15 1.16 1.28 1.44 1.67 1.90 2.02 2.14 2.22 2.13 2.03 1.85 1.62 1.58 1.75 1.78 1.65 1.68 1.81 1.90 1.79 1.88 1.78 1.68 1.75
0.99 0.96 1.02 0.98 0.88 1.00 0.98 0.97 1.00 1.03 1.13 1.08 0.93 0.89 0.90 0.87 0.89 0.90 0.92 1.01 1.09 1.10 1.07 1.07 1.13 1.21 1.31 1.51 1.81 2.33 2.61 2.68 2.54 2.47 2.38 2.18 1.95 1.93 2.11 2.14 2.11 2.09 2.10 2.08 2.02 2.23 2.17 1.88 1.78
0.87 0.94 0.94 0.89 0.80 0.86 0.81 0.80 0.79 0.78 0.78 0.79 0.73 0.74 0.83 0.83 0.89 0.86 0.86 0.90 0.96 0.96 0.97 1.13 1.20 1.26 1.33 1.56 1.86 2.23 2.66 2.74 2.67 2.53 2.43 2.31 2.18 2.14 2.18 2.42 2.53 2.49 2.67 2.69 2.47 2.58 2.60 2.22 1.99
0.82 0.88 0.89 0.96 0.92 0.82 0.76 0.84 0.80 0.72 0.65 0.62 0.64 0.68 0.72 0.69 0.75 0.79 0.83 0.87 0.87 0.86 0.84 0.95 1.14 1.36 1.61 1.87 2.16 2.33 2.61 2.71 2.69 2.56 2.48 2.49 2.42 2.29 2.37 2.48 2.64 2.65 2.74 2.94 3.06 2.95 3.02 2.81 2.37
0.86 0.61 0.59 0.70 1.02 1.09 0.82 1.01 0.81 0.67 0.73 0.69 0.67 0.67 0.67 0.65 0.69 0.72 0.79 0.85 0.82 0.78 0.80 0.86 1.00 1.31 1.69 2.01 2.23 2.47 2.83 2.93 2.77 2.67 2.55 2.56 2.58 2.57 2.68 2.68 2.73 2.74 2.76 2.86 3.03 3.02 3.19 3.31 2.90
0.66 0.54 0.57 0.65 0.87 0.95 0.75 0.77 0.73 0.65 0.72 0.69 0.62 0.61 0.60 0.57 0.56 0.62 0.67 0.71 0.75 0.81 0.86 0.92 1.11 1.39 1.72 1.92 2.17 2.50 2.69 2.80 2.86 2.73 2.67 2.64 2.67 2.68 2.76 2.81 2.91 2.89 2.86 2.79 3.00 3.10 3.21 3.17 3.12
0.49 0.62 0.72 0.74 0.90 0.96 0.56 0.63 0.74 0.63 0.52 0.53 0.56 0.55 0.53 0.49 0.47 0.57 0.69 0.76 0.84 0.88 0.98 1.09 1.24 1.44 1.69 1.89 2.14 2.29 2.47 2.63 2.68 2.71 2.64 2.60 2.64 2.73 2.61 2.56 2.73 2.77 2.78 2.73 2.88 3.02 3.18 3.17 3.21
0.52 0.90 1.28 1.27 1.24 0.96 0.48 0.59 0.71 0.51 0.40 0.43 0.48 0.50 0.48 0.51 0.57 0.69 0.84 1.00 1.08 1.10 1.14 1.25 1.37 1.55 1.70 1.80 1.95 2.04 2.13 2.26 2.23 2.37 2.41 2.53 2.53 2.56 2.57 2.49 2.51 2.56 2.48 2.45 2.55 2.60 2.69 2.84 3.03
0.46 0.70 1.18 1.30 1.08 0.82 0.62 0.82 0.77 0.50 0.42 0.44 0.45 0.49 0.52 0.63 0.73 0.89 1.07 1.30 1.39 1.41 1.43 1.45 1.51 1.58 1.61 1.65 1.75 1.88 1.95 2.00 1.97 1.95 1.95 2.11 2.26 2.28 2.35 2.38 2.34 2.38 2.41 2.35 2.43 2.43 2.44 2.49 2.55
0.49 0.56 0.61 0.83 0.73 0.74 0.72 0.81 0.76 0.55 0.51 0.50 0.52 0.57 0.67 0.87 1.01 1.16 1.32 1.45 1.46 1.54 1.54 1.54 1.58 1.58 1.57 1.60 1.64 1.62 1.66 1.72 1.73 1.71 1.78 1.81 1.87 1.88 1.92 1.97 2.12 2.24 2.29 2.30 2.42 2.47 2.43 2.35 2.33
0.44 0.59 0.76 1.09 1.21 1.04 0.83 0.92 0.92 0.74 0.62 0.56 0.62 0.74 0.90 1.17 1.34 1.52 1.70 1.70 1.65 1.68 1.78 1.72 1.65 1.62 1.65 1.66 1.65 1.57 1.60 1.63 1.63 1.54 1.58 1.54 1.51 1.52 1.58 1.67 1.85 2.15 2.29 2.30 2.35 2.41 2.42 2.41 2.33
0.46 0.63 0.81 1.13 1.22 1.37 1.39 1.40 1.07 0.86 0.81 0.88 1.00 1.11 1.29 1.55 1.72 1.85 1.97 1.98 1.83 1.72 1.71 1.66 1.60 1.58 1.54 1.60 1.68 1.63 1.57 1.59 1.61 1.53 1.44 1.41 1.41 1.40 1.47 1.55 1.70 1.86 2.08 2.29 2.43 2.42 2.36 2.33 2.29
0.55 0.78 1.01 1.51 1.44 1.27 1.47 1.60 1.17 0.97 0.96 0.99 1.06 1.22 1.42 1.55 1.64 1.71 1.73 1.84 1.76 1.67 1.57 1.55 1.48 1.37 1.39 1.46 1.57 1.65 1.55 1.51 1.51 1.43 1.47 1.38 1.31 1.30 1.31 1.47 1.67 1.79 1.88 1.97 2.05 2.11 2.15 2.16 2.18

GEFSSGP_prec_meanprecacc_348.txt.gz
Total_Precipitation_Accumulation
1.95 1.94 2.70 3.81 4.48 4.00 3.63 2.91 2.32 1.98 1.64 1.28 1.04 1.04 1.54 2.08 2.68 3.07 2.97 2.73 2.09 1.80 1.90 2.79 3.53 3.18 2.80 2.68 2.83 3.20 3.15 3.28 3.13 2.95 2.73 2.48 2.16 1.95 1.91 1.71 1.65 1.69 1.58 1.46 1.52 1.74 1.68 1.63 1.69
1.83 2.61 3.59 4.63 4.35 3.60 3.46 2.74 2.28 1.83 1.25 1.00 0.80 0.85 1.09 1.08 1.06 1.62 2.81 2.90 1.97 1.61 1.70 2.31 3.38 3.05 2.90 2.88 2.98 3.09 3.14 3.30 3.07 2.86 2.60 2.39 2.16 2.09 2.08 2.08 2.07 1.91 1.69 1.57 1.52 1.71 1.63 1.48 1.58
1.98 3.29 4.49 4.55 3.51 3.17 3.41 2.71 1.92 1.39 0.97 0.93 0.86 0.78 0.97 1.26 1.35 2.07 2.91 2.51 1.81 1.53 1.65 2.58 3.41 3.08 2.92 2.91 2.98 3.04 3.24 3.32 3.07 2.73 2.41 2.23 2.22 2.41 2.42 2.30 2.16 1.92 1.76 1.61 1.53 1.60 1.63 1.53 1.48
2.44 3.71 3.93 3.51 3.17 2.73 2.51 2.22 1.65 1.56 1.18 0.85 0.79 0.89 0.87 1.27 1.52 2.01 2.23 1.93 1.74 1.74 1.75 2.59 3.43 3.28 3.07 2.95 2.92 3.03 3.16 3.25 3.20 2.83 2.45 2.29 2.26 2.29 2.31 2.20 2.06 1.87 1.78 1.65 1.65 1.62 1.59 1.57 1.49
2.91 3.60 3.63 3.18 2.99 2.64 1.97 1.72 1.53 1.73 1.54 1.03 0.81 1.10 1.31 1.74 1.84 1.89 1.90 1.88 1.64 1.67 1.76 2.28 3.11 3.13 2.99 2.89 2.97 3.15 3.13 3.09 3.08 2.87 2.55 2.40 2.33 2.24 2.28 2.20 2.04 1.74 1.70 1.63 1.70 1.66 1.58 1.48 1.47
3.21 3.22 3.50 3.34 3.15 2.75 2.23 1.79 1.62 1.62 1.44 1.08 0.99 1.23 1.66 2.28 2.29 2.16 1.84 1.85 1.80 1.66 1.65 2.00 2.71 2.99 2.92 2.93 2.96 3.06 3.12 3.05 2.85 2.55 2.39 2.32 2.34 2.30 2.26 2.17 2.04 1.75 1.72 1.66 1.59 1.60 1.54 1.48 1.50
3.09 3.06 3.02 2.80 3.06 3.29 2.59 1.74 1.76 1.64 1.56 1.28 0.99 1.33 1.74 2.47 2.29 2.14 1.96 1.91 1.97 1.87 1.86 2.03 2.38 2.63 3.05 3.15 3.02 3.08 3.16 3.04 2.77 2.40 2.31 2.26 2.25 2.08 2.06 2.04 1.91 1.73 1.69 1.57 1.47 1.45 1.44 1.51 1.55
2.40 2.47 2.40 2.50 2.96 3.18 2.27 1.44 1.30 1.51 1.56 1.06 0.90 1.26 1.70 2.10 2.03 2.09 2.13 2.12 2.00 1.93 1.93 1.88 2.04 2.17 2.49 2.76 3.03 3.17 3.12 3.02 2.82 2.42 2.26 2.20 2.14 1.97 1.88 1.77 1.76 1.70 1.71 1.69 1.54 1.47 1.48 1.57 1.62
2.21 2.59 2.76 2.90 2.79 2.59 1.75 1.47 1.30 1.16 1.22 1.02 0.92 1.04 1.45 1.56 1.70 2.03 2.25 2.22 1.96 1.78 1.71 1.64 1.73 1.88 2.12 2.41 2.65 2.97 2.94 2.85 2.65 2.30 2.22 2.15 1.94 1.65 1.62 1.56 1.91 1.82 1.78 1.74 1.70 1.68 1.64 1.59 1.53
2.31 2.74 2.71 2.30 1.82 1.75 1.50 1.37 1.31 1.24 1.32 1.26 1.14 1.22 1.56 1.75 1.82 1.96 2.03 1.92 1.75 1.79 1.65 1.47 1.48 1.62 1.77 1.93 2.49 2.62 2.27 2.11 1.92 2.05 2.01 1.94 1.90 1.70 1.31 1.49 1.93 1.99 1.94 1.74 1.67 1.73 1.52 1.19 1.08
1.81 2.05 1.78 1.75 1.40 1.25 1.28 1.23 1.13 1.36 1.59 1.31 1.28 1.39 1.72 1.94 1.82 1.83 1.81 1.68 1.60 1.57 1.49 1.37 1.36 1.34 1.34 1.55 1.93 2.19 2.21 2.12 1.90 1.78 1.74 1.82 1.74 1.54 1.32 1.42 1.54 1.51 1.43 1.31 1.31 1.24 1.02 0.93 1.01
1.58 1.49 1.27 1.41 1.23 1.22 1.27 1.15 1.12 1.22 1.34 1.05 1.13 1.36 1.67 1.85 1.81 1.72 1.63 1.60 1.49 1.38 1.31 1.24 1.19 1.17 1.13 1.22 1.33 1.46 1.70 1.78 1.72 1.51 1.34 1.42 1.57 1.50 1.31 1.33 1.35 1.35 1.31 1.38 1.36 1.25 1.11 1.05 1.06
1.74 1.53 1.32 1.27 1.23 1.18 1.16 1.12 1.04 1.03 0.96 0.98 1.09 1.43 1.74 1.97 2.08 2.03 1.73 1.47 1.35 1.36 1.30 1.19 1.06 1.07 1.10 1.20 1.26 1.17 1.37 1.53 1.58 1.53 1.32 1.25 1.31 1.36 1.30 1.16 1.25 1.27 1.27 1.27 1.26 1.20 1.21 1.28 1.25
1.59 1.44 1.41 1.38 1.24 1.10 1.14 1.11 1.04 1.19 1.05 1.05 1.12 1.33 1.49 1.74 1.83 1.75 1.69 1.42 1.24 1.21 1.28 1.19 1.15 1.19 1.14 1.10 1.15 1.12 1.15 1.27 1.29 1.40 1.35 1.30 1.28 1.27 1.28 1.24 1.29 1.35 1.36 1.31 1.24 1.16 1.27 1.31 1.32
1.27 1.52 1.55 1.44 1.27 1.16 1.10 1.35 1.23 1.26 1.20 1.25 1.24 1.23 1.34 1.47 1.56 1.47 1.35 1.18 1.15 1.12 1.11 1.05 1.07 1.15 1.12 1.12 1.14 1.12 1.23 1.27 1.24 1.26 1.22 1.31 1.27 1.25 1.28 1.30 1.32 1.32 1.39 1.43 1.42 1.34 1.37 1.39 1.47
1.42 1.77 2.01 1.60 1.36 1.30 1.37 1.64 1.40 1.37 1.37 1.26 1.19 1.21 1.24 1.31 1.41 1.41 1.31 1.12 1.04 0.99 0.98 0.97 0.84 0.94 1.07 1.18 1.25 1.32 1.38 1.40 1.38 1.27 1.18 1.17 1.16 1.18 1.26 1.28 1.31 1.39 1.38 1.45 1.55 1.56 1.59 1.59 1.62
1.74 1.79 1.74 1.65 1.33 1.34 1.41 1.46 1.32 1.37 1.36 1.20 1.09 1.07 1.02 1.07 1.13 1.17 1.20 1.14 1.04 0.98 0.99 1.04 0.95 0.97 1.09 1.17 1.33 1.43 1.54 1.62 1.67 1.55 1.52 1.44 1.31 1.33 1.43 1.49 1.47 1.50 1.56 1.58 1.51 1.54 1.67 1.76 1.74
1.61 1.31 1.32 1.40 1.25 1.21 1.27 1.16 1.17 1.31 1.32 1.27 1.12 1.01 0.91 0.94 0.96 0.97 1.04 1.10 1.09 1.06 1.07 1.13 1.19 1.19 1.32 1.49 1.73 1.94 2.05 2.16 2.23 2.14 2.05 1.86 1.63 1.58 1.75 1.79 1.66 1.70 1.82 1.92 1.81 1.91 1.81 1.71 1.78
1.00 0.97 1.02 0.98 0.89 1.00 0.99 0.98 1.01 1.05 1.15 1.10 0.97 0.93 0.92 0.89 0.91 0.91 0.94 1.03 1.10 1.12 1.09 1.09 1.16 1.26 1.35 1.56 1.86 2.38 2.63 2.70 2.56 2.49 2.40 2.20 1.96 1.93 2.12 2.14 2.12 2.10 2.11 2.10 2.04 2.26 2.20 1.91 1.81
0.88 0.95 0.94 0.89 0.80 0.86 0.82 0.81 0.80 0.81 0.81 0.81 0.75 0.76 0.85 0.86 0.91 0.88 0.88 0.93 0.97 0.97 0.99 1.16 1.24 1.35 1.44 1.63 1.90 2.27 2.69 2.76 2.69 2.55 2.44 2.34 2.20 2.15 2.18 2.42 2.53 2.49 2.68 2.70 2.48 2.60 2.63 2.25 2.02
0.82 0.88 0.90 0.96 0.93 0.82 0.77 0.85 0.81 0.74 0.69 0.66 0.68 0.71 0.74 0.71 0.77 0.80 0.84 0.88 0.90 0.90 0.88 0.98 1.18 1.42 1.73 1.97 2.23 2.38 2.65 2.74 2.72 2.58 2.50 2.51 2.43 2.29 2.37 2.48 2.65 2.65 2.75 2.96 3.08 2.97 3.05 2.83 2.39
0.87 0.61 0.59 0.70 1.03 1.10 0.83 1.01 0.81 0.69 0.77 0.74 0.71 0.69 0.68 0.68 0.72 0.73 0.80 0.86 0.83 0.80 0.83 0.89 1.03 1.33 1.74 2.08 2.29 2.52 2.87 2.95 2.79 2.69 2.57 2.57 2.59 2.58 2.69 2.69 2.74 2.75 2.76 2.88 3.05 3.04 3.21 3.34 2.92
0.66 0.55 0.57 0.65 0.88 0.96 0.76 0.78 0.74 0.66 0.74 0.74 0.65 0.62 0.61 0.59 0.59 0.65 0.68 0.72 0.76 0.82 0.88 0.95 1.14 1.42 1.75 1.96 2.21 2.55 2.73 2.83 2.89 2.75 2.68 2.65 2.68 2.70 2.77 2.83 2.93 2.90 2.88 2.80 3.02 3.12 3.24 3.19 3.14
0.49 0.63 0.73 0.75 0.91 0.97 0.56 0.64 0.75 0.64 0.53 0.56 0.58 0.56 0.54 0.50 0.49 0.59 0.71 0.77 0.85 0.89 0.99 1.11 1.26 1.46 1.72 1.93 2.18 2.33 2.49 2.65 2.71 2.73 2.65 2.61 2.66 2.76 2.64 2.57 2.74 2.79 2.80 2.75 2.90 3.04 3.21 3.21 3.24
0.53 0.91 1.30 1.29 1.26 0.97 0.48 0.60 0.72 0.51 0.40 0.45 0.50 0.51 0.49 0.52 0.58 0.69 0.85 1.01 1.09 1.12 1.16 1.26 1.39 1.58 1.72 1.84 1.99 2.07 2.15 2.27 2.25 2.38 2.42 2.54 2.55 2.58 2.59 2.50 2.53 2.57 2.50 2.47 2.58 2.62 2.71 2.86 3.05
0.47 0.71 1.19 1.32 1.11 0.84 0.63 0.83 0.79 0.51 0.43 0.45 0.47 0.50 0.53 0.64 0.74 0.89 1.07 1.30 1.39 1.43 1.44 1.47 1.53 1.60 1.64 1.68 1.79 1.91 1.97 2.01 1.98 1.96 1.96 2.12 2.28 2.30 2.36 2.39 2.35 2.40 2.42 2.37 2.45 2.45 2.46 2.51 2.56
0.50 0.57 0.62 0.84 0.75 0.76 0.74 0.83 0.81 0.59 0.53 0.52 0.54 0.59 0.68 0.88 1.01 1.16 1.33 1.46 1.47 1.54 1.55 1.56 1.60 1.61 1.60 1.63 1.67 1.66 1.69 1.74 1.75 1.73 1.79 1.82 1.88 1.90 1.93 1.99 2.13 2.25 2.30 2.31 2.42 2.48 2.44 2.36 2.35
0.44 0.60 0.78 1.10 1.22 1.06 0.85 0.94 0.95 0.79 0.66 0.59 0.64 0.75 0.91 1.18 1.35 1.53 1.71 1.70 1.66 1.68 1.78 1.73 1.68 1.65 1.68 1.70 1.68 1.60 1.62 1.65 1.64 1.55 1.60 1.55 1.52 1.53 1.59 1.68 1.86 2.16 2.29 2.31 2.36 2.41 2.42 2.41 2.34
0.47 0.65 0.83 1.15 1.23 1.38 1.40 1.42 1.08 0.88 0.86 0.93 1.01 1.11 1.29 1.55 1.72 1.86 1.97 1.98 1.83 1.72 1.72 1.67 1.62 1.61 1.57 1.62 1.70 1.66 1.60 1.61 1.63 1.54 1.46 1.43 1.43 1.42 1.49 1.56 1.70 1.86 2.08 2.29 2.44 2.43 2.36 2.34 2.29
0.56 0.78 1.02 1.52 1.45 1.28 1.48 1.61 1.17 0.98 1.00 1.02 1.07 1.22 1.43 1.55 1.64 1.71 1.73 1.84 1.76 1.67 1.58 1.55 1.50 1.39 1.41 1.48 1.59 1.67 1.58 1.54 1.54 1.45 1.49 1.40 1.33 1.34 1.34 1.48 1.68 1.80 1.89 1.97 2.06 2.12 2.15 2.17 2.18

GEFSSGP_prec_meanprecacc_354.txt.gz
Total_Precipitation_Accumulation
1.95 1.94 2.71 3.84 4.53 4.07 3.67 2.94 2.34 1.99 1.65 1.29 1.04 1.05 1.55 2.09 2.71 3.13 3.02 2.78 2.13 1.83 1.93 2.82 3.57 3.23 2.86 2.79 2.99 3.31 3.24 3.37 3.22 3.02 2.79 2.56 2.27 2.09 2.04 1.83 1.76 1.81 1.68 1.56 1.64 1.86 1.82 1.76 1.82
1.83 2.61 3.60 4.66 4.43 3.66 3.51 2.76 2.29 1.84 1.25 1.00 0.81 0.85 1.09 1.09 1.06 1.64 2.85 2.93 2.01 1.65 1.73 2.35 3.41 3.09 2.95 2.97 3.14 3.25 3.23 3.38 3.14 2.93 2.67 2.49 2.32 2.29 2.23 2.21 2.20 2.03 1.79 1.66 1.61 1.79 1.74 1.58 1.66
1.98 3.29 4.51 4.59 3.56 3.23 3.46 2.73 1.93 1.39 0.97 0.93 0.86 0.78 0.97 1.27 1.36 2.09 2.95 2.54 1.85 1.56 1.67 2.62 3.45 3.14 2.99 2.99 3.12 3.22 3.33 3.39 3.13 2.80 2.52 2.35 2.36 2.63 2.60 2.42 2.27 2.03 1.85 1.68 1.61 1.67 1.71 1.60 1.54
2.45 3.73 3.95 3.55 3.22 2.77 2.54 2.24 1.66 1.56 1.19 0.85 0.79 0.90 0.88 1.28 1.54 2.03 2.24 1.96 1.77 1.75 1.76 2.62 3.48 3.36 3.15 3.02 3.06 3.20 3.27 3.34 3.27 2.91 2.55 2.45 2.43 2.46 2.43 2.31 2.16 1.96 1.85 1.73 1.73 1.69 1.67 1.64 1.55
2.93 3.62 3.66 3.22 3.03 2.68 1.98 1.73 1.55 1.74 1.55 1.03 0.82 1.11 1.32 1.77 1.87 1.91 1.92 1.90 1.66 1.68 1.77 2.31 3.17 3.22 3.07 2.99 3.15 3.32 3.25 3.18 3.16 2.97 2.64 2.52 2.47 2.36 2.37 2.29 2.13 1.85 1.79 1.71 1.76 1.73 1.65 1.55 1.53
3.23 3.25 3.55 3.40 3.18 2.78 2.24 1.80 1.63 1.65 1.46 1.09 0.99 1.24 1.69 2.32 2.31 2.17 1.86 1.87 1.81 1.67 1.67 2.05 2.80 3.09 3.01 3.07 3.16 3.24 3.25 3.13 2.91 2.63 2.49 2.43 2.46 2.41 2.37 2.27 2.14 1.86 1.80 1.72 1.65 1.67 1.60 1.53 1.55
3.12 3.08 3.06 2.83 3.10 3.32 2.61 1.75 1.77 1.67 1.57 1.29 0.99 1.35 1.76 2.51 2.31 2.15 1.97 1.93 1.99 1.88 1.88 2.08 2.49 2.77 3.20 3.30 3.17 3.20 3.28 3.14 2.84 2.47 2.42 2.41 2.45 2.28 2.24 2.20 2.04 1.83 1.76 1.63 1.53 1.51 1.49 1.56 1.59
2.41 2.49 2.42 2.53 2.99 3.20 2.29 1.44 1.31 1.52 1.57 1.07 0.91 1.28 1.73 2.13 2.05 2.10 2.14 2.15 2.03 1.96 1.95 1.91 2.10 2.27 2.60 2.87 3.13 3.26 3.19 3.10 2.92 2.52 2.39 2.39 2.37 2.23 2.14 1.98 1.92 1.83 1.79 1.74 1.60 1.54 1.54 1.63 1.67
2.22 2.60 2.78 2.92 2.81 2.60 1.76 1.47 1.30 1.18 1.22 1.02 0.92 1.05 1.47 1.57 1.71 2.04 2.27 2.25 1.99 1.81 1.73 1.67 1.76 1.93 2.19 2.48 2.71 3.04 2.99 2.89 2.71 2.39 2.30 2.23 2.08 1.81 1.78 1.72 2.05 1.93 1.85 1.80 1.77 1.74 1.68 1.63 1.57
2.32 2.76 2.72 2.31 1.83 1.76 1.51 1.38 1.31 1.25 1.33 1.27 1.14 1.22 1.57 1.76 1.83 1.97 2.05 1.94 1.78 1.82 1.68 1.50 1.52 1.66 1.81 1.98 2.54 2.67 2.31 2.14 1.96 2.10 2.06 1.99 1.97 1.78 1.38 1.57 1.99 2.05 1.98 1.79 1.72 1.77 1.56 1.24 1.11
1.82 2.05 1.79 1.75 1.41 1.25 1.29 1.24 1.14 1.37 1.61 1.32 1.29 1.40 1.73 1.94 1.83 1.84 1.82 1.71 1.64 1.61 1.53 1.40 1.40 1.38 1.38 1.60 1.97 2.22 2.25 2.16 1.94 1.81 1.78 1.87 1.79 1.58 1.36 1.46 1.57 1.53 1.45 1.33 1.34 1.26 1.06 0.97 1.04
1.58 1.49 1.28 1.41 1.23 1.22 1.27 1.16 1.13 1.23 1.37 1.07 1.14 1.37 1.68 1.86 1.81 1.72 1.64 1.61 1.52 1.42 1.35 1.28 1.24 1.21 1.17 1.27 1.38 1.49 1.73 1.81 1.76 1.54 1.38 1.46 1.60 1.53 1.34 1.35 1.39 1.39 1.34 1.41 1.38 1.29 1.15 1.07 1.07
1.75 1.54 1.32 1.27 1.23 1.18 1.16 1.13 1.06 1.06 1.01 1.01 1.10 1.43 1.74 1.98 2.09 2.03 1.74 1.48 1.37 1.39 1.33 1.24 1.10 1.12 1.15 1.24 1.31 1.20 1.40 1.58 1.62 1.55 1.35 1.27 1.33 1.39 1.33 1.18 1.28 1.31 1.30 1.29 1.28 1.22 1.23 1.30 1.26
1.59 1.45 1.41 1.38 1.24 1.10 1.14 1.11 1.05 1.22 1.08 1.08 1.16 1.36 1.50 1.75 1.85 1.76 1.70 1.43 1.25 1.23 1.31 1.23 1.18 1.23 1.18 1.13 1.18 1.17 1.19 1.34 1.34 1.42 1.37 1.31 1.29 1.29 1.30 1.25 1.31 1.37 1.37 1.32 1.25 1.18 1.29 1.33 1.35
1.27 1.52 1.56 1.44 1.27 1.16 1.10 1.35 1.23 1.27 1.21 1.28 1.28 1.27 1.36 1.48 1.57 1.48 1.36 1.19 1.16 1.14 1.13 1.08 1.09 1.18 1.15 1.16 1.19 1.16 1.26 1.33 1.30 1.28 1.23 1.32 1.28 1.26 1.28 1.31 1.32 1.33 1.40 1.45 1.44 1.36 1.39 1.41 1.51
1.42 1.78 2.02 1.61 1.36 1.30 1.39 1.66 1.40 1.38 1.39 1.30 1.22 1.24 1.26 1.32 1.41 1.41 1.32 1.12 1.06 1.03 1.02 0.99 0.85 0.96 1.10 1.22 1.30 1.36 1.41 1.44 1.43 1.30 1.20 1.19 1.17 1.18 1.26 1.29 1.31 1.39 1.39 1.46 1.56 1.58 1.61 1.61 1.66
1.75 1.79 1.75 1.66 1.34 1.34 1.42 1.46 1.33 1.38 1.38 1.25 1.12 1.10 1.04 1.08 1.14 1.17 1.20 1.14 1.06 1.01 1.03 1.06 0.97 0.99 1.13 1.22 1.38 1.46 1.56 1.64 1.72 1.59 1.54 1.46 1.32 1.33 1.43 1.49 1.47 1.50 1.56 1.59 1.52 1.57 1.70 1.79 1.77
1.62 1.32 1.32 1.41 1.26 1.21 1.27 1.16 1.19 1.33 1.34 1.29 1.15 1.05 0.95 0.97 0.97 0.97 1.04 1.10 1.10 1.07 1.09 1.15 1.21 1.23 1.37 1.54 1.77 1.97 2.08 2.18 2.28 2.20 2.07 1.88 1.64 1.59 1.75 1.79 1.66 1.70 1.82 1.92 1.82 1.92 1.84 1.75 1.81
1.00 0.97 1.03 0.98 0.89 1.01 0.99 0.98 1.03 1.08 1.19 1.14 1.00 0.97 0.97 0.94 0.94 0.93 0.95 1.03 1.11 1.13 1.10 1.11 1.19 1.30 1.41 1.63 1.93 2.44 2.68 2.72 2.58 2.55 2.45 2.22 1.97 1.94 2.12 2.14 2.12 2.10 2.11 2.10 2.04 2.28 2.22 1.93 1.84
0.88 0.95 0.95 0.89 0.80 0.87 0.83 0.82 0.81 0.82 0.83 0.85 0.79 0.79 0.90 0.90 0.96 0.91 0.89 0.93 0.98 0.98 1.00 1.17 1.25 1.37 1.48 1.71 2.01 2.34 2.72 2.78 2.71 2.58 2.49 2.36 2.21 2.15 2.18 2.42 2.54 2.49 2.69 2.71 2.49 2.61 2.65 2.28 2.04
0.83 0.90 0.91 0.96 0.93 0.83 0.78 0.86 0.81 0.75 0.70 0.67 0.69 0.73 0.78 0.75 0.82 0.84 0.87 0.91 0.93 0.92 0.89 0.99 1.19 1.43 1.74 2.01 2.30 2.45 2.69 2.76 2.74 2.60 2.52 2.54 2.44 2.30 2.37 2.48 2.65 2.66 2.76 2.97 3.09 2.98 3.06 2.86 2.42
0.88 0.62 0.59 0.71 1.03 1.11 0.84 1.02 0.82 0.69 0.77 0.75 0.73 0.71 0.72 0.73 0.76 0.79 0.83 0.89 0.87 0.82 0.84 0.90 1.04 1.34 1.75 2.10 2.31 2.55 2.88 2.97 2.81 2.71 2.60 2.60 2.61 2.59 2.69 2.69 2.74 2.75 2.77 2.89 3.06 3.05 3.22 3.35 2.94
0.66 0.55 0.57 0.66 0.90 0.98 0.77 0.80 0.74 0.67 0.75 0.75 0.68 0.64 0.63 0.61 0.62 0.68 0.72 0.74 0.78 0.85 0.90 0.96 1.16 1.44 1.77 1.98 2.24 2.58 2.75 2.86 2.92 2.78 2.70 2.67 2.70 2.71 2.78 2.83 2.93 2.91 2.89 2.81 3.02 3.13 3.24 3.20 3.16
0.49 0.63 0.73 0.76 0.93 0.99 0.57 0.65 0.76 0.64 0.53 0.57 0.60 0.58 0.55 0.51 0.50 0.60 0.74 0.79 0.86 0.90 1.01 1.12 1.28 1.49 1.75 1.95 2.21 2.37 2.54 2.70 2.76 2.77 2.68 2.64 2.68 2.77 2.64 2.58 2.75 2.80 2.81 2.75 2.90 3.04 3.21 3.22 3.25
0.53 0.92 1.32 1.32 1.29 0.98 0.49 0.61 0.73 0.51 0.40 0.46 0.51 0.52 0.50 0.54 0.59 0.70 0.86 1.03 1.11 1.13 1.17 1.27 1.40 1.59 1.74 1.86 2.01 2.10 2.19 2.31 2.29 2.42 2.45 2.57 2.56 2.60 2.61 2.52 2.54 2.58 2.51 2.48 2.58 2.63 2.72 2.87 3.06
0.47 0.72 1.21 1.34 1.12 0.85 0.64 0.84 0.79 0.51 0.43 0.46 0.48 0.51 0.54 0.65 0.75 0.90 1.08 1.30 1.41 1.44 1.46 1.49 1.55 1.62 1.66 1.70 1.82 1.94 1.99 2.04 2.01 1.99 1.97 2.13 2.29 2.32 2.37 2.41 2.36 2.40 2.43 2.37 2.46 2.46 2.47 2.52 2.58
0.50 0.57 0.63 0.85 0.75 0.77 0.74 0.83 0.81 0.60 0.53 0.53 0.55 0.60 0.69 0.89 1.03 1.17 1.33 1.46 1.47 1.55 1.56 1.57 1.62 1.62 1.62 1.65 1.70 1.68 1.72 1.76 1.77 1.75 1.81 1.83 1.90 1.91 1.94 2.00 2.13 2.26 2.30 2.32 2.43 2.49 2.45 2.38 2.36
0.45 0.61 0.80 1.12 1.24 1.08 0.86 0.94 0.96 0.80 0.67 0.60 0.66 0.77 0.92 1.19 1.36 1.54 1.71 1.70 1.66 1.69 1.79 1.73 1.69 1.66 1.70 1.73 1.71 1.63 1.65 1.68 1.67 1.58 1.62 1.56 1.53 1.55 1.61 1.70 1.87 2.16 2.29 2.31 2.37 2.42 2.43 2.41 2.34
0.48 0.66 0.86 1.17 1.25 1.40 1.42 1.43 1.08 0.89 0.87 0.95 1.03 1.13 1.30 1.55 1.73 1.87 1.98 1.98 1.84 1.73 1.72 1.68 1.63 1.63 1.59 1.65 1.74 1.69 1.63 1.63 1.64 1.56 1.47 1.44 1.44 1.44 1.51 1.58 1.71 1.87 2.08 2.30 2.44 2.43 2.37 2.34 2.30
0.58 0.80 1.04 1.55 1.47 1.30 1.50 1.63 1.18 0.99 1.02 1.05 1.09 1.24 1.44 1.56 1.65 1.72 1.74 1.84 1.77 1.69 1.59 1.57 1.52 1.41 1.43 1.50 1.62 1.71 1.62 1.56 1.57 1.49 1.52 1.41 1.34 1.35 1.36 1.49 1.69 1.80 1.89 1.98 2.07 2.13 2.16 2.17 2.19

GEFSSGP_prec_meanprecacc_360.txt.gz
Total_Precipitation_Accumulation
1.95 1.94 2.73 3.87 4.57 4.10 3.70 2.97 2.36 2.02 1.66 1.30 1.05 1.05 1.55 2.10 2.73 3.15 3.06 2.84 2.16 1.86 1.96 2.85 3.61 3.27 2.92 2.86 3.08 3.41 3.30 3.40 3.26 3.07 2.85 2.62 2.36 2.21 2.16 1.93 1.90 1.95 1.79 1.64 1.71 1.93 1.89 1.82 1.89
1.84 2.62 3.63 4.70 4.46 3.69 3.54 2.80 2.33 1.86 1.27 1.01 0.82 0.85 1.09 1.09 1.07 1.65 2.89 2.98 2.03 1.66 1.74 2.36 3.45 3.13 3.00 3.04 3.22 3.37 3.32 3.43 3.17 2.97 2.72 2.54 2.39 2.41 2.39 2.34 2.33 2.16 1.90 1.75 1.69 1.86 1.79 1.64 1.73
1.99 3.30 4.53 4.62 3.58 3.25 3.49 2.77 1.96 1.41 0.97 0.94 0.86 0.79 0.98 1.28 1.37 2.12 2.99 2.56 1.86 1.56 1.68 2.62 3.47 3.17 3.05 3.08 3.22 3.34 3.45 3.46 3.17 2.84 2.57 2.40 2.43 2.75 2.82 2.65 2.40 2.12 1.94 1.77 1.68 1.72 1.78 1.66 1.61
2.46 3.74 3.98 3.57 3.24 2.79 2.56 2.26 1.67 1.57 1.19 0.86 0.79 0.90 0.89 1.30 1.57 2.06 2.28 1.97 1.78 1.76 1.77 2.63 3.50 3.38 3.20 3.11 3.19 3.35 3.41 3.43 3.32 2.96 2.59 2.50 2.53 2.59 2.59 2.58 2.32 2.05 1.93 1.78 1.76 1.71 1.72 1.69 1.59
2.95 3.65 3.69 3.24 3.06 2.72 2.01 1.75 1.56 1.75 1.56 1.04 0.82 1.13 1.34 1.80 1.90 1.92 1.92 1.90 1.67 1.69 1.77 2.34 3.22 3.25 3.11 3.08 3.33 3.50 3.37 3.27 3.22 3.02 2.67 2.59 2.56 2.49 2.56 2.50 2.25 1.94 1.87 1.76 1.79 1.75 1.68 1.59 1.58
3.24 3.27 3.57 3.42 3.21 2.81 2.27 1.82 1.65 1.66 1.48 1.10 1.00 1.26 1.71 2.35 2.34 2.20 1.87 1.88 1.81 1.67 1.68 2.14 2.90 3.13 3.05 3.15 3.36 3.43 3.36 3.21 2.97 2.68 2.53 2.49 2.58 2.53 2.51 2.41 2.25 1.96 1.87 1.77 1.68 1.69 1.63 1.57 1.60
3.13 3.10 3.08 2.85 3.13 3.35 2.63 1.77 1.79 1.68 1.59 1.31 1.01 1.37 1.79 2.53 2.35 2.19 1.99 1.94 2.00 1.88 1.90 2.24 2.65 2.84 3.26 3.43 3.36 3.36 3.37 3.19 2.88 2.51 2.47 2.47 2.56 2.43 2.39 2.35 2.17 1.93 1.83 1.69 1.56 1.53 1.51 1.60 1.64
2.42 2.50 2.44 2.55 3.02 3.22 2.30 1.45 1.32 1.54 1.59 1.10 0.93 1.30 1.75 2.15 2.09 2.14 2.17 2.18 2.05 1.97 1.98 2.09 2.30 2.41 2.74 3.04 3.31 3.39 3.27 3.15 2.96 2.56 2.44 2.48 2.53 2.47 2.37 2.14 2.05 1.93 1.87 1.80 1.64 1.56 1.56 1.66 1.72
2.23 2.61 2.80 2.93 2.83 2.61 1.76 1.48 1.32 1.19 1.24 1.04 0.94 1.07 1.49 1.60 1.75 2.08 2.31 2.30 2.02 1.84 1.77 1.80 1.96 2.12 2.38 2.67 2.88 3.13 3.04 2.93 2.75 2.43 2.33 2.28 2.18 1.96 1.97 1.86 2.16 2.02 1.93 1.86 1.82 1.78 1.72 1.67 1.61
2.34 2.78 2.73 2.32 1.84 1.77 1.51 1.38 1.33 1.27 1.35 1.28 1.16 1.24 1.59 1.78 1.85 1.99 2.07 1.97 1.81 1.85 1.72 1.60 1.69 1.87 2.02 2.16 2.64 2.72 2.34 2.16 1.97 2.11 2.08 2.02 2.02 1.86 1.47 1.66 2.08 2.12 2.05 1.85 1.78 1.82 1.59 1.27 1.14
1.82 2.06 1.79 1.75 1.41 1.26 1.29 1.25 1.16 1.39 1.63 1.34 1.31 1.42 1.76 1.96 1.83 1.84 1.83 1.72 1.66 1.63 1.56 1.46 1.49 1.49 1.51 1.72 2.04 2.27 2.27 2.18 1.95 1.82 1.79 1.88 1.82 1.63 1.40 1.50 1.61 1.56 1.47 1.35 1.37 1.28 1.07 0.99 1.06
1.59 1.50 1.28 1.41 1.23 1.22 1.28 1.17 1.15 1.25 1.40 1.09 1.17 1.40 1.69 1.87 1.82 1.73 1.65 1.62 1.53 1.44 1.36 1.30 1.27 1.27 1.24 1.34 1.44 1.54 1.77 1.83 1.78 1.55 1.38 1.47 1.62 1.55 1.35 1.37 1.41 1.41 1.36 1.42 1.40 1.30 1.16 1.08 1.08
1.76 1.54 1.32 1.28 1.23 1.18 1.17 1.14 1.08 1.09 1.06 1.06 1.16 1.49 1.78 1.99 2.10 2.05 1.75 1.49 1.39 1.41 1.35 1.26 1.13 1.15 1.18 1.26 1.35 1.27 1.47 1.61 1.63 1.56 1.36 1.28 1.33 1.40 1.33 1.18 1.29 1.32 1.31 1.30 1.30 1.24 1.25 1.31 1.27
1.60 1.45 1.42 1.39 1.25 1.11 1.15 1.12 1.07 1.24 1.10 1.13 1.24 1.46 1.58 1.78 1.86 1.77 1.71 1.45 1.27 1.25 1.32 1.25 1.20 1.25 1.20 1.15 1.21 1.21 1.26 1.40 1.37 1.43 1.38 1.32 1.29 1.29 1.30 1.25 1.31 1.37 1.38 1.33 1.26 1.19 1.31 1.35 1.37
1.27 1.52 1.56 1.45 1.28 1.17 1.11 1.37 1.25 1.29 1.24 1.31 1.33 1.35 1.42 1.52 1.59 1.48 1.36 1.20 1.17 1.15 1.15 1.10 1.12 1.21 1.18 1.19 1.21 1.18 1.29 1.36 1.34 1.32 1.25 1.33 1.29 1.26 1.29 1.31 1.32 1.33 1.41 1.45 1.44 1.37 1.40 1.42 1.52
1.43 1.79 2.03 1.61 1.37 1.31 1.40 1.67 1.41 1.39 1.42 1.33 1.27 1.31 1.33 1.36 1.44 1.42 1.33 1.14 1.08 1.04 1.04 1.01 0.87 1.00 1.14 1.24 1.32 1.37 1.43 1.45 1.45 1.33 1.22 1.20 1.19 1.20 1.27 1.29 1.32 1.39 1.39 1.46 1.56 1.58 1.61 1.61 1.67
1.76 1.80 1.76 1.66 1.34 1.34 1.43 1.48 1.34 1.39 1.39 1.27 1.16 1.16 1.13 1.14 1.18 1.20 1.22 1.17 1.08 1.04 1.05 1.09 0.99 1.02 1.16 1.25 1.41 1.48 1.59 1.67 1.73 1.60 1.57 1.48 1.35 1.36 1.45 1.50 1.48 1.50 1.56 1.59 1.52 1.57 1.70 1.80 1.78
1.63 1.32 1.33 1.42 1.26 1.21 1.28 1.17 1.20 1.34 1.35 1.31 1.18 1.09 1.01 1.04 1.04 1.04 1.10 1.14 1.13 1.11 1.12 1.17 1.23 1.25 1.41 1.59 1.82 2.03 2.13 2.23 2.31 2.23 2.11 1.93 1.68 1.62 1.78 1.81 1.67 1.70 1.83 1.92 1.82 1.93 1.84 1.75 1.82
1.02 0.98 1.03 0.99 0.89 1.01 0.99 0.99 1.04 1.09 1.20 1.15 1.02 1.00 1.01 1.02 1.05 1.04 1.02 1.09 1.15 1.16 1.13 1.13 1.21 1.32 1.45 1.67 1.99 2.50 2.75 2.78 2.63 2.59 2.50 2.27 2.02 1.97 2.14 2.15 2.13 2.11 2.13 2.11 2.05 2.29 2.22 1.94 1.85
0.89 0.96 0.96 0.90 0.80 0.87 0.84 0.83 0.82 0.83 0.84 0.85 0.79 0.81 0.92 0.96 1.07 1.06 1.00 1.01 1.03 1.02 1.04 1.20 1.28 1.39 1.51 1.74 2.04 2.40 2.81 2.88 2.78 2.62 2.53 2.42 2.26 2.20 2.22 2.44 2.55 2.50 2.70 2.72 2.50 2.63 2.66 2.28 2.05
0.84 0.91 0.92 0.97 0.93 0.83 0.79 0.87 0.82 0.76 0.71 0.68 0.70 0.74 0.80 0.78 0.89 0.96 1.01 1.03 1.01 0.97 0.93 1.03 1.21 1.45 1.76 2.02 2.32 2.49 2.75 2.85 2.82 2.65 2.56 2.58 2.48 2.34 2.40 2.50 2.67 2.67 2.77 2.98 3.11 3.01 3.09 2.87 2.43
0.89 0.62 0.60 0.71 1.04 1.12 0.85 1.03 0.82 0.70 0.80 0.77 0.74 0.72 0.73 0.75 0.80 0.86 0.95 1.01 0.97 0.88 0.88 0.94 1.07 1.36 1.77 2.11 2.32 2.56 2.91 3.01 2.86 2.76 2.63 2.63 2.64 2.61 2.71 2.70 2.76 2.77 2.79 2.90 3.07 3.07 3.24 3.36 2.95
0.67 0.55 0.57 0.66 0.91 0.99 0.77 0.81 0.75 0.68 0.77 0.76 0.69 0.65 0.65 0.63 0.65 0.73 0.79 0.82 0.84 0.89 0.94 0.99 1.19 1.48 1.80 2.00 2.25 2.59 2.77 2.87 2.95 2.82 2.73 2.69 2.72 2.73 2.80 2.85 2.95 2.92 2.89 2.82 3.02 3.13 3.25 3.21 3.17
0.50 0.63 0.73 0.76 0.94 1.00 0.58 0.66 0.77 0.65 0.54 0.58 0.61 0.59 0.56 0.53 0.53 0.64 0.78 0.84 0.89 0.92 1.04 1.16 1.33 1.54 1.81 1.99 2.25 2.39 2.57 2.73 2.79 2.81 2.72 2.68 2.72 2.80 2.67 2.60 2.77 2.81 2.82 2.76 2.91 3.05 3.22 3.23 3.26
0.54 0.93 1.33 1.33 1.30 0.99 0.49 0.61 0.73 0.51 0.40 0.46 0.51 0.54 0.53 0.55 0.62 0.74 0.89 1.06 1.13 1.14 1.19 1.32 1.48 1.70 1.83 1.93 2.07 2.14 2.23 2.34 2.32 2.46 2.50 2.61 2.61 2.64 2.64 2.54 2.56 2.59 2.52 2.49 2.59 2.64 2.73 2.87 3.07
0.48 0.73 1.22 1.35 1.13 0.86 0.64 0.84 0.80 0.51 0.43 0.47 0.49 0.52 0.57 0.67 0.78 0.94 1.11 1.33 1.43 1.45 1.47 1.50 1.58 1.71 1.76 1.78 1.87 1.98 2.03 2.07 2.03 2.01 2.01 2.17 2.32 2.34 2.40 2.42 2.37 2.41 2.44 2.39 2.47 2.47 2.48 2.53 2.59
0.52 0.59 0.64 0.86 0.76 0.77 0.75 0.83 0.82 0.60 0.54 0.53 0.55 0.61 0.70 0.90 1.04 1.20 1.37 1.47 1.49 1.56 1.57 1.59 1.63 1.66 1.67 1.72 1.77 1.73 1.75 1.79 1.80 1.78 1.84 1.87 1.93 1.93 1.97 2.02 2.15 2.27 2.31 2.33 2.44 2.50 2.45 2.38 2.37
0.47 0.63 0.82 1.14 1.25 1.08 0.87 0.94 0.96 0.80 0.67 0.60 0.66 0.77 0.93 1.20 1.37 1.56 1.75 1.71 1.67 1.70 1.80 1.75 1.70 1.68 1.73 1.76 1.77 1.68 1.69 1.71 1.70 1.61 1.65 1.60 1.56 1.58 1.66 1.74 1.90 2.18 2.31 2.32 2.37 2.43 2.44 2.42 2.35
0.51 0.68 0.88 1.19 1.26 1.41 1.43 1.45 1.10 0.89 0.87 0.95 1.03 1.14 1.32 1.56 1.74 1.88 2.01 2.01 1.85 1.75 1.74 1.70 1.65 1.66 1.62 1.70 1.80 1.74 1.68 1.67 1.68 1.58 1.50 1.48 1.48 1.48 1.55 1.61 1.74 1.89 2.10 2.31 2.45 2.44 2.37 2.35 2.30
0.60 0.83 1.06 1.56 1.49 1.32 1.52 1.66 1.20 0.99 1.02 1.05 1.09 1.24 1.45 1.58 1.66 1.74 1.78 1.91 1.80 1.71 1.61 1.59 1.54 1.44 1.47 1.56 1.68 1.77 1.67 1.62 1.61 1.52 1.55 1.47 1.40 1.40 1.40 1.52 1.72 1.83 1.91 2.00 2.08 2.14 2.17 2.18 2.20

GEFSSGP_prec_meanprecacc_366.txt.gz
Total_Precipitation_Accumulation
1.95 1.95 2.73 3.88 4.58 4.11 3.70 2.98 2.37 2.03 1.68 1.33 1.06 1.06 1.56 2.10 2.73 3.16 3.08 2.86 2.18 1.87 1.97 2.89 3.66 3.33 2.97 2.92 3.14 3.48 3.37 3.48 3.32 3.13 2.89 2.68 2.49 2.38 2.36 2.11 2.07 2.14 1.94 1.76 1.82 2.01 1.98 1.93 1.99
1.85 2.63 3.64 4.71 4.46 3.69 3.55 2.81 2.34 1.88 1.29 1.02 0.82 0.85 1.10 1.10 1.08 1.67 2.90 3.00 2.04 1.67 1.76 2.40 3.50 3.19 3.07 3.10 3.28 3.42 3.39 3.52 3.25 3.04 2.78 2.60 2.52 2.63 2.65 2.63 2.60 2.40 2.10 1.89 1.81 1.95 1.88 1.73 1.82
2.00 3.31 4.54 4.63 3.58 3.25 3.50 2.78 1.98 1.43 0.99 0.95 0.87 0.79 0.98 1.29 1.38 2.13 3.00 2.58 1.87 1.57 1.69 2.65 3.52 3.24 3.12 3.15 3.29 3.39 3.52 3.55 3.24 2.90 2.61 2.45 2.52 2.94 3.11 2.97 2.69 2.35 2.13 1.92 1.81 1.84 1.88 1.75 1.69
2.47 3.75 3.98 3.57 3.24 2.80 2.56 2.27 1.69 1.60 1.21 0.86 0.80 0.91 0.90 1.31 1.58 2.07 2.29 1.98 1.79 1.76 1.78 2.65 3.53 3.42 3.25 3.17 3.26 3.41 3.47 3.52 3.40 3.01 2.63 2.55 2.59 2.66 2.70 2.74 2.56 2.23 2.05 1.90 1.88 1.83 1.81 1.79 1.72
2.95 3.65 3.69 3.24 3.06 2.72 2.01 1.76 1.57 1.77 1.58 1.05 0.82 1.13 1.35 1.81 1.91 1.93 1.93 1.91 1.67 1.69 1.78 2.35 3.24 3.28 3.15 3.14 3.39 3.57 3.42 3.35 3.30 3.08 2.72 2.64 2.63 2.59 2.66 2.66 2.53 2.17 2.00 1.86 1.88 1.85 1.77 1.67 1.68
3.25 3.27 3.57 3.42 3.22 2.82 2.27 1.83 1.66 1.68 1.49 1.11 1.01 1.27 1.71 2.36 2.38 2.22 1.88 1.89 1.83 1.68 1.69 2.16 2.92 3.16 3.08 3.19 3.42 3.48 3.40 3.27 3.05 2.75 2.58 2.55 2.66 2.64 2.70 2.63 2.50 2.16 1.99 1.88 1.77 1.76 1.69 1.65 1.68
3.14 3.10 3.08 2.85 3.14 3.36 2.64 1.78 1.81 1.71 1.61 1.32 1.02 1.38 1.79 2.54 2.38 2.23 2.02 1.97 2.02 1.89 1.90 2.25 2.67 2.87 3.29 3.48 3.43 3.41 3.40 3.25 2.94 2.57 2.51 2.54 2.66 2.54 2.54 2.53 2.35 2.05 1.93 1.77 1.63 1.58 1.56 1.64 1.69
2.42 2.50 2.44 2.55 3.02 3.23 2.30 1.46 1.33 1.55 1.60 1.12 0.94 1.31 1.76 2.16 2.12 2.20 2.22 2.22 2.08 1.99 2.00 2.14 2.36 2.44 2.77 3.10 3.42 3.48 3.33 3.21 3.00 2.59 2.47 2.53 2.64 2.63 2.51 2.25 2.16 2.03 1.96 1.88 1.70 1.61 1.60 1.69 1.75
2.24 2.61 2.80 2.93 2.83 2.61 1.77 1.48 1.32 1.20 1.26 1.07 0.96 1.08 1.50 1.62 1.78 2.14 2.36 2.34 2.06 1.86 1.80 1.94 2.09 2.18 2.42 2.74 3.03 3.28 3.13 3.01 2.79 2.45 2.36 2.32 2.24 2.06 2.09 1.97 2.28 2.14 2.03 1.94 1.89 1.83 1.76 1.70 1.64
2.35 2.78 2.73 2.32 1.85 1.77 1.52 1.39 1.33 1.28 1.36 1.30 1.18 1.25 1.60 1.80 1.87 2.02 2.11 2.03 1.84 1.87 1.75 1.76 1.91 1.98 2.08 2.26 2.85 2.91 2.43 2.22 2.01 2.13 2.10 2.04 2.04 1.89 1.54 1.77 2.21 2.25 2.15 1.93 1.85 1.87 1.63 1.30 1.17
1.83 2.06 1.79 1.75 1.41 1.26 1.29 1.26 1.16 1.40 1.64 1.34 1.32 1.44 1.77 1.98 1.85 1.85 1.84 1.74 1.67 1.65 1.58 1.60 1.73 1.67 1.63 1.86 2.22 2.43 2.37 2.24 1.99 1.84 1.80 1.90 1.85 1.67 1.46 1.59 1.72 1.66 1.56 1.42 1.42 1.32 1.10 1.01 1.08
1.59 1.50 1.28 1.41 1.23 1.22 1.28 1.18 1.16 1.26 1.41 1.10 1.19 1.43 1.72 1.89 1.83 1.74 1.66 1.63 1.55 1.46 1.40 1.46 1.47 1.42 1.36 1.46 1.57 1.65 1.85 1.90 1.81 1.57 1.39 1.49 1.65 1.60 1.40 1.41 1.45 1.45 1.40 1.47 1.43 1.32 1.19 1.11 1.11
1.76 1.55 1.32 1.28 1.23 1.18 1.17 1.14 1.09 1.11 1.09 1.09 1.20 1.55 1.84 2.03 2.13 2.06 1.77 1.51 1.40 1.42 1.39 1.41 1.33 1.30 1.29 1.36 1.43 1.33 1.53 1.67 1.66 1.58 1.37 1.29 1.35 1.41 1.35 1.20 1.30 1.34 1.35 1.34 1.33 1.27 1.27 1.34 1.30
1.60 1.45 1.42 1.39 1.25 1.11 1.15 1.12 1.08 1.27 1.15 1.17 1.28 1.53 1.65 1.83 1.89 1.78 1.72 1.45 1.27 1.26 1.35 1.36 1.36 1.39 1.29 1.22 1.26 1.25 1.30 1.44 1.40 1.45 1.39 1.34 1.31 1.30 1.31 1.27 1.32 1.39 1.42 1.37 1.30 1.23 1.33 1.38 1.39
1.27 1.52 1.56 1.45 1.29 1.17 1.11 1.37 1.25 1.30 1.26 1.33 1.35 1.37 1.45 1.54 1.61 1.49 1.37 1.20 1.18 1.16 1.16 1.16 1.23 1.31 1.25 1.23 1.23 1.21 1.31 1.38 1.38 1.34 1.26 1.35 1.30 1.28 1.30 1.33 1.35 1.37 1.44 1.49 1.48 1.40 1.42 1.44 1.54
1.43 1.79 2.03 1.61 1.38 1.31 1.40 1.67 1.41 1.39 1.42 1.35 1.29 1.33 1.34 1.37 1.46 1.45 1.35 1.15 1.08 1.05 1.04 1.03 0.93 1.06 1.19 1.28 1.34 1.39 1.44 1.47 1.47 1.35 1.24 1.22 1.20 1.22 1.28 1.30 1.34 1.43 1.41 1.47 1.58 1.60 1.62 1.63 1.69
1.76 1.80 1.76 1.66 1.34 1.35 1.43 1.48 1.35 1.39 1.39 1.28 1.18 1.18 1.15 1.16 1.20 1.23 1.25 1.19 1.10 1.05 1.07 1.10 1.02 1.05 1.20 1.29 1.43 1.50 1.60 1.67 1.74 1.62 1.59 1.50 1.36 1.37 1.47 1.52 1.50 1.52 1.57 1.60 1.53 1.57 1.70 1.80 1.78
1.63 1.32 1.33 1.42 1.26 1.21 1.28 1.18 1.20 1.35 1.35 1.31 1.19 1.11 1.03 1.07 1.06 1.07 1.13 1.17 1.17 1.15 1.15 1.19 1.25 1.28 1.43 1.62 1.87 2.07 2.15 2.24 2.32 2.26 2.14 1.96 1.71 1.63 1.79 1.82 1.69 1.73 1.85 1.94 1.84 1.93 1.84 1.75 1.82
1.02 0.98 1.03 0.99 0.89 1.01 1.00 1.00 1.05 1.10 1.21 1.15 1.03 1.02 1.03 1.05 1.07 1.07 1.06 1.12 1.19 1.20 1.18 1.17 1.25 1.36 1.47 1.70 2.02 2.52 2.77 2.80 2.66 2.63 2.53 2.31 2.06 2.01 2.17 2.18 2.14 2.13 2.15 2.14 2.09 2.30 2.23 1.94 1.85
0.89 0.97 0.96 0.90 0.80 0.88 0.84 0.84 0.83 0.84 0.85 0.86 0.80 0.82 0.94 0.99 1.09 1.07 1.04 1.05 1.07 1.07 1.10 1.26 1.34 1.44 1.54 1.76 2.07 2.42 2.84 2.91 2.82 2.67 2.58 2.47 2.31 2.25 2.26 2.47 2.57 2.51 2.72 2.74 2.53 2.66 2.68 2.30 2.06
0.84 0.91 0.92 0.97 0.93 0.83 0.79 0.88 0.83 0.77 0.73 0.69 0.71 0.75 0.81 0.79 0.90 0.97 1.03 1.08 1.06 1.02 0.99 1.10 1.28 1.52 1.80 2.05 2.34 2.51 2.77 2.86 2.84 2.68 2.60 2.63 2.53 2.39 2.45 2.54 2.69 2.68 2.77 2.99 3.12 3.04 3.13 2.90 2.45
0.89 0.63 0.60 0.71 1.04 1.12 0.85 1.04 0.82 0.71 0.80 0.78 0.75 0.74 0.74 0.76 0.81 0.87 0.96 1.03 1.02 0.94 0.93 1.00 1.14 1.43 1.83 2.16 2.36 2.58 2.92 3.02 2.87 2.78 2.67 2.66 2.67 2.65 2.76 2.74 2.78 2.79 2.80 2.90 3.08 3.09 3.29 3.40 2.98
0.67 0.55 0.58 0.66 0.91 0.99 0.77 0.81 0.75 0.68 0.77 0.77 0.69 0.66 0.66 0.64 0.66 0.74 0.80 0.83 0.87 0.95 0.98 1.04 1.26 1.54 1.87 2.05 2.28 2.61 2.78 2.88 2.97 2.85 2.76 2.72 2.75 2.77 2.84 2.89 2.98 2.94 2.91 2.83 3.03 3.15 3.29 3.24 3.19
0.51 0.65 0.74 0.76 0.94 1.00 0.58 0.66 0.77 0.65 0.54 0.58 0.61 0.60 0.57 0.53 0.53 0.65 0.80 0.86 0.92 0.97 1.08 1.21 1.40 1.62 1.88 2.05 2.29 2.42 2.58 2.75 2.81 2.84 2.75 2.70 2.74 2.83 2.70 2.63 2.80 2.84 2.84 2.78 2.92 3.06 3.23 3.24 3.28
0.56 0.95 1.35 1.34 1.30 0.99 0.50 0.62 0.74 0.51 0.41 0.47 0.52 0.54 0.53 0.55 0.62 0.75 0.92 1.09 1.16 1.18 1.22 1.36 1.54 1.77 1.92 2.00 2.11 2.17 2.25 2.36 2.33 2.48 2.54 2.64 2.63 2.67 2.68 2.57 2.59 2.63 2.55 2.52 2.62 2.66 2.75 2.89 3.09
0.50 0.74 1.25 1.37 1.13 0.86 0.64 0.84 0.80 0.52 0.44 0.47 0.49 0.52 0.57 0.68 0.78 0.95 1.13 1.35 1.45 1.48 1.49 1.53 1.62 1.76 1.83 1.84 1.92 2.02 2.05 2.10 2.05 2.04 2.05 2.21 2.35 2.38 2.44 2.46 2.41 2.45 2.48 2.42 2.51 2.50 2.51 2.55 2.61
0.53 0.60 0.65 0.88 0.76 0.77 0.75 0.83 0.82 0.61 0.54 0.53 0.56 0.61 0.71 0.91 1.05 1.21 1.39 1.50 1.51 1.58 1.59 1.60 1.65 1.68 1.71 1.76 1.82 1.78 1.79 1.83 1.84 1.82 1.88 1.91 1.96 1.97 2.00 2.05 2.18 2.30 2.35 2.36 2.47 2.51 2.47 2.40 2.39
0.48 0.64 0.83 1.15 1.26 1.09 0.87 0.95 0.97 0.80 0.67 0.60 0.67 0.78 0.95 1.20 1.38 1.57 1.77 1.74 1.69 1.72 1.82 1.75 1.71 1.69 1.75 1.79 1.80 1.72 1.73 1.76 1.75 1.65 1.69 1.64 1.61 1.62 1.68 1.76 1.92 2.20 2.33 2.35 2.40 2.45 2.46 2.44 2.37
0.52 0.70 0.89 1.20 1.28 1.42 1.44 1.45 1.11 0.90 0.87 0.95 1.03 1.15 1.33 1.57 1.75 1.90 2.03 2.02 1.86 1.76 1.76 1.71 1.67 1.68 1.64 1.72 1.82 1.77 1.71 1.71 1.72 1.62 1.54 1.53 1.52 1.52 1.58 1.64 1.77 1.91 2.12 2.34 2.48 2.46 2.40 2.37 2.32
0.61 0.84 1.07 1.57 1.50 1.33 1.53 1.67 1.21 1.00 1.02 1.05 1.09 1.26 1.47 1.58 1.67 1.74 1.79 1.92 1.81 1.73 1.63 1.61 1.56 1.47 1.50 1.59 1.70 1.81 1.72 1.66 1.64 1.55 1.59 1.51 1.44 1.44 1.43 1.55 1.75 1.86 1.94 2.02 2.11 2.16 2.19 2.20 2.22

GEFSSGP_prec_meanprecacc_372.txt.gz
Total_Precipitation_Accumulation
1.96 1.96 2.73 3.88 4.58 4.12 3.72 2.99 2.38 2.04 1.69 1.34 1.09 1.08 1.56 2.11 2.74 3.17 3.10 2.87 2.19 1.88 1.98 2.93 3.75 3.41 3.05 3.00 3.21 3.56 3.42 3.55 3.41 3.21 2.98 2.79 2.62 2.52 2.50 2.28 2.24 2.33 2.13 1.93 1.98 2.17 2.13 2.08 2.15
1.85 2.64 3.64 4.71 4.47 3.71 3.57 2.83 2.36 1.89 1.30 1.04 0.84 0.86 1.10 1.10 1.08 1.67 2.92 3.00 2.05 1.68 1.77 2.44 3.57 3.26 3.13 3.17 3.36 3.49 3.46 3.60 3.34 3.13 2.87 2.69 2.61 2.75 2.81 2.84 2.78 2.57 2.28 2.07 1.99 2.14 2.05 1.86 1.95
2.00 3.31 4.54 4.63 3.58 3.26 3.52 2.80 2.01 1.47 1.00 0.96 0.88 0.79 0.99 1.30 1.39 2.14 3.01 2.58 1.88 1.57 1.70 2.68 3.59 3.31 3.18 3.21 3.34 3.45 3.59 3.64 3.33 3.00 2.71 2.54 2.61 3.03 3.22 3.15 2.93 2.58 2.33 2.09 1.96 1.99 2.01 1.86 1.79
2.47 3.75 3.98 3.57 3.24 2.80 2.57 2.29 1.72 1.64 1.22 0.87 0.80 0.92 0.90 1.32 1.58 2.07 2.29 1.98 1.79 1.76 1.78 2.66 3.57 3.48 3.31 3.22 3.31 3.47 3.53 3.58 3.47 3.10 2.73 2.64 2.68 2.74 2.79 2.87 2.75 2.48 2.28 2.08 2.03 1.96 1.92 1.91 1.83
2.96 3.65 3.69 3.24 3.07 2.72 2.01 1.76 1.59 1.80 1.60 1.06 0.83 1.14 1.35 1.81 1.92 1.94 1.93 1.91 1.68 1.70 1.79 2.36 3.27 3.32 3.20 3.18 3.44 3.62 3.46 3.39 3.34 3.14 2.79 2.71 2.69 2.67 2.77 2.80 2.70 2.40 2.26 2.06 2.04 1.97 1.89 1.80 1.80
3.25 3.27 3.58 3.42 3.22 2.82 2.28 1.84 1.68 1.70 1.51 1.12 1.02 1.27 1.72 2.37 2.40 2.24 1.89 1.90 1.84 1.68 1.69 2.16 2.94 3.19 3.12 3.23 3.47 3.53 3.44 3.31 3.09 2.80 2.62 2.60 2.72 2.72 2.79 2.79 2.63 2.34 2.24 2.09 1.92 1.87 1.80 1.76 1.77
3.14 3.11 3.08 2.86 3.14 3.37 2.64 1.79 1.82 1.72 1.62 1.34 1.03 1.38 1.79 2.56 2.40 2.25 2.04 1.98 2.03 1.90 1.91 2.26 2.69 2.89 3.32 3.51 3.46 3.44 3.44 3.28 2.97 2.61 2.54 2.58 2.71 2.62 2.64 2.69 2.55 2.27 2.15 1.95 1.76 1.67 1.64 1.71 1.76
2.43 2.50 2.44 2.55 3.03 3.23 2.31 1.46 1.34 1.57 1.62 1.13 0.95 1.32 1.76 2.18 2.14 2.22 2.23 2.23 2.10 2.00 2.01 2.15 2.38 2.46 2.79 3.13 3.45 3.51 3.37 3.24 3.02 2.61 2.49 2.56 2.68 2.70 2.64 2.41 2.40 2.31 2.17 2.01 1.79 1.69 1.67 1.75 1.80
2.24 2.62 2.80 2.94 2.84 2.61 1.77 1.48 1.33 1.21 1.28 1.08 0.97 1.08 1.50 1.64 1.80 2.16 2.38 2.36 2.07 1.87 1.81 1.94 2.10 2.20 2.44 2.76 3.06 3.31 3.16 3.04 2.81 2.47 2.37 2.34 2.27 2.11 2.20 2.13 2.53 2.37 2.18 2.04 1.97 1.91 1.83 1.76 1.69
2.35 2.79 2.73 2.32 1.85 1.77 1.52 1.39 1.34 1.29 1.37 1.31 1.19 1.26 1.61 1.81 1.88 2.03 2.12 2.03 1.85 1.88 1.76 1.77 1.92 2.00 2.09 2.28 2.88 2.94 2.45 2.24 2.02 2.15 2.11 2.05 2.06 1.92 1.60 1.85 2.34 2.40 2.28 2.03 1.93 1.95 1.70 1.35 1.21
1.83 2.06 1.79 1.75 1.41 1.26 1.30 1.26 1.17 1.41 1.65 1.35 1.33 1.45 1.79 1.99 1.86 1.86 1.85 1.75 1.68 1.65 1.59 1.61 1.74 1.68 1.65 1.89 2.26 2.47 2.41 2.28 2.01 1.85 1.81 1.92 1.89 1.71 1.51 1.66 1.83 1.79 1.70 1.54 1.52 1.41 1.18 1.07 1.13
1.59 1.50 1.28 1.41 1.24 1.23 1.29 1.18 1.16 1.27 1.42 1.11 1.20 1.45 1.74 1.91 1.84 1.74 1.66 1.64 1.56 1.46 1.41 1.47 1.49 1.43 1.38 1.49 1.63 1.71 1.90 1.93 1.84 1.60 1.41 1.51 1.68 1.62 1.42 1.44 1.50 1.52 1.50 1.56 1.51 1.41 1.27 1.17 1.16
1.76 1.55 1.32 1.28 1.23 1.19 1.17 1.14 1.09 1.12 1.10 1.10 1.21 1.57 1.87 2.07 2.15 2.08 1.78 1.52 1.40 1.43 1.40 1.43 1.38 1.34 1.32 1.41 1.50 1.41 1.59 1.70 1.69 1.62 1.39 1.31 1.37 1.42 1.36 1.22 1.34 1.40 1.42 1.39 1.37 1.32 1.32 1.38 1.34
1.60 1.45 1.42 1.39 1.25 1.11 1.15 1.13 1.09 1.29 1.18 1.20 1.31 1.56 1.69 1.87 1.91 1.80 1.72 1.46 1.27 1.26 1.36 1.40 1.48 1.49 1.34 1.28 1.33 1.32 1.35 1.47 1.44 1.48 1.41 1.35 1.32 1.32 1.33 1.28 1.36 1.44 1.47 1.41 1.34 1.27 1.36 1.41 1.43
1.27 1.53 1.56 1.45 1.29 1.18 1.11 1.37 1.27 1.33 1.29 1.36 1.37 1.39 1.46 1.55 1.62 1.51 1.39 1.21 1.18 1.16 1.17 1.21 1.35 1.42 1.30 1.29 1.31 1.28 1.36 1.42 1.42 1.38 1.28 1.36 1.32 1.29 1.31 1.34 1.38 1.40 1.48 1.52 1.51 1.44 1.45 1.47 1.57
1.43 1.79 2.03 1.61 1.38 1.31 1.40 1.68 1.42 1.40 1.44 1.36 1.30 1.34 1.36 1.38 1.47 1.47 1.38 1.18 1.10 1.06 1.05 1.08 1.03 1.16 1.26 1.34 1.41 1.46 1.49 1.50 1.49 1.37 1.27 1.24 1.22 1.23 1.30 1.33 1.37 1.44 1.43 1.50 1.62 1.64 1.66 1.65 1.71
1.76 1.80 1.76 1.67 1.34 1.35 1.43 1.48 1.35 1.40 1.40 1.28 1.19 1.19 1.16 1.17 1.21 1.24 1.29 1.23 1.13 1.07 1.09 1.14 1.12 1.16 1.28 1.35 1.48 1.55 1.63 1.70 1.76 1.64 1.62 1.52 1.38 1.39 1.48 1.54 1.53 1.54 1.59 1.62 1.55 1.60 1.73 1.82 1.80
1.63 1.32 1.33 1.42 1.26 1.22 1.29 1.19 1.21 1.35 1.36 1.32 1.20 1.12 1.04 1.07 1.07 1.08 1.15 1.21 1.20 1.18 1.19 1.22 1.34 1.39 1.51 1.67 1.91 2.11 2.19 2.27 2.35 2.29 2.17 1.99 1.73 1.66 1.81 1.84 1.71 1.75 1.87 1.98 1.88 1.95 1.86 1.77 1.84
1.02 0.98 1.04 0.99 0.90 1.02 1.01 1.02 1.07 1.12 1.23 1.16 1.03 1.02 1.03 1.05 1.08 1.08 1.07 1.14 1.22 1.24 1.21 1.20 1.34 1.46 1.55 1.76 2.06 2.55 2.79 2.83 2.68 2.65 2.56 2.34 2.09 2.04 2.19 2.19 2.17 2.16 2.18 2.16 2.12 2.34 2.25 1.96 1.86
0.89 0.97 0.96 0.90 0.81 0.88 0.86 0.87 0.85 0.86 0.87 0.87 0.81 0.82 0.94 0.99 1.10 1.08 1.05 1.06 1.09 1.09 1.13 1.30 1.43 1.52 1.60 1.81 2.10 2.44 2.86 2.93 2.83 2.69 2.60 2.49 2.34 2.28 2.29 2.50 2.59 2.54 2.74 2.76 2.54 2.67 2.70 2.32 2.07
0.84 0.91 0.92 0.97 0.93 0.83 0.80 0.89 0.84 0.78 0.73 0.70 0.72 0.76 0.82 0.80 0.90 0.98 1.04 1.09 1.07 1.04 1.01 1.13 1.36 1.58 1.86 2.10 2.38 2.53 2.79 2.88 2.85 2.69 2.61 2.64 2.54 2.41 2.48 2.57 2.72 2.71 2.79 3.00 3.13 3.05 3.15 2.92 2.47
0.89 0.63 0.61 0.72 1.05 1.12 0.85 1.04 0.83 0.72 0.81 0.79 0.75 0.74 0.75 0.76 0.82 0.87 0.97 1.04 1.04 0.96 0.94 1.03 1.19 1.47 1.90 2.21 2.39 2.60 2.94 3.03 2.88 2.78 2.67 2.68 2.69 2.67 2.79 2.76 2.80 2.81 2.81 2.92 3.10 3.10 3.31 3.43 3.00
0.68 0.56 0.58 0.67 0.91 0.99 0.77 0.81 0.76 0.69 0.77 0.77 0.70 0.66 0.66 0.64 0.66 0.74 0.80 0.84 0.91 0.99 1.00 1.06 1.29 1.58 1.93 2.10 2.32 2.63 2.79 2.90 2.98 2.85 2.76 2.73 2.77 2.79 2.87 2.91 3.01 2.97 2.93 2.84 3.05 3.17 3.31 3.27 3.22
0.52 0.67 0.75 0.77 0.94 1.00 0.58 0.66 0.77 0.65 0.54 0.58 0.62 0.60 0.57 0.53 0.53 0.66 0.80 0.87 0.95 1.04 1.12 1.24 1.42 1.65 1.92 2.10 2.33 2.44 2.59 2.76 2.81 2.84 2.76 2.72 2.75 2.84 2.72 2.66 2.83 2.88 2.88 2.81 2.94 3.08 3.25 3.26 3.30
0.57 0.97 1.37 1.35 1.31 1.00 0.50 0.62 0.74 0.52 0.41 0.47 0.52 0.54 0.53 0.56 0.63 0.75 0.92 1.10 1.19 1.27 1.28 1.41 1.57 1.80 1.95 2.03 2.17 2.21 2.26 2.38 2.35 2.48 2.55 2.66 2.65 2.69 2.70 2.60 2.63 2.67 2.59 2.55 2.65 2.69 2.77 2.92 3.11
0.51 0.76 1.26 1.38 1.14 0.86 0.64 0.84 0.80 0.52 0.44 0.48 0.50 0.53 0.57 0.68 0.78 0.95 1.14 1.36 1.47 1.56 1.56 1.57 1.65 1.79 1.87 1.89 1.97 2.07 2.08 2.11 2.06 2.05 2.06 2.23 2.38 2.41 2.47 2.51 2.46 2.50 2.52 2.45 2.54 2.54 2.55 2.60 2.66
0.54 0.61 0.66 0.88 0.77 0.78 0.75 0.83 0.83 0.62 0.55 0.54 0.56 0.62 0.71 0.91 1.05 1.22 1.39 1.50 1.52 1.64 1.65 1.63 1.67 1.70 1.75 1.83 1.89 1.83 1.83 1.85 1.85 1.83 1.90 1.94 1.98 1.99 2.03 2.09 2.21 2.33 2.38 2.39 2.50 2.54 2.49 2.42 2.41
0.49 0.66 0.85 1.16 1.27 1.09 0.87 0.95 0.97 0.81 0.68 0.61 0.67 0.79 0.96 1.21 1.39 1.58 1.77 1.74 1.70 1.75 1.88 1.79 1.73 1.71 1.78 1.84 1.86 1.78 1.79 1.80 1.77 1.67 1.72 1.69 1.63 1.64 1.71 1.78 1.94 2.21 2.35 2.36 2.43 2.48 2.49 2.46 2.38
0.52 0.71 0.91 1.22 1.28 1.43 1.44 1.46 1.11 0.90 0.88 0.95 1.04 1.15 1.34 1.57 1.75 1.90 2.05 2.03 1.87 1.78 1.81 1.76 1.71 1.70 1.67 1.76 1.86 1.81 1.77 1.77 1.76 1.64 1.57 1.58 1.56 1.55 1.61 1.66 1.78 1.92 2.14 2.35 2.49 2.47 2.41 2.39 2.34
0.62 0.84 1.08 1.59 1.50 1.33 1.53 1.67 1.21 1.00 1.03 1.06 1.09 1.26 1.48 1.59 1.67 1.75 1.80 1.93 1.82 1.74 1.66 1.66 1.61 1.50 1.53 1.61 1.74 1.84 1.76 1.70 1.68 1.58 1.63 1.56 1.48 1.47 1.45 1.57 1.76 1.87 1.95 2.03 2.11 2.16 2.19 2.21 2.23

GEFSSGP_prec_meanprecacc_378.txt.gz
Total_Precipitation_Accumulation
1.96 1.96 2.74 3.89 4.63 4.19 3.79 3.03 2.41 2.07 1.70 1.34 1.09 1.09 1.57 2.12 2.75 3.20 3.13 2.88 2.20 1.90 2.01 2.97 3.80 3.46 3.11 3.07 3.26 3.59 3.45 3.59 3.46 3.27 3.08 2.97 2.83 2.75 2.71 2.45 2.37 2.46 2.29 2.08 2.14 2.35 2.30 2.22 2.28
1.85 2.64 3.65 4.73 4.53 3.79 3.63 2.85 2.39 1.92 1.31 1.04 0.84 0.87 1.11 1.10 1.09 1.69 2.94 3.00 2.05 1.69 1.79 2.46 3.61 3.32 3.19 3.23 3.44 3.56 3.51 3.63 3.38 3.19 2.94 2.80 2.75 2.90 2.96 2.99 2.92 2.73 2.46 2.25 2.17 2.32 2.24 2.00 2.06
2.00 3.32 4.56 4.66 3.61 3.30 3.56 2.82 2.02 1.47 1.00 0.96 0.88 0.80 1.00 1.31 1.39 2.15 3.02 2.59 1.88 1.58 1.71 2.70 3.63 3.35 3.22 3.25 3.39 3.51 3.66 3.70 3.39 3.06 2.77 2.60 2.69 3.13 3.34 3.28 3.07 2.76 2.52 2.27 2.15 2.21 2.21 2.01 1.91
2.47 3.77 4.00 3.60 3.25 2.81 2.59 2.30 1.72 1.65 1.23 0.87 0.80 0.92 0.90 1.33 1.59 2.08 2.29 1.99 1.80 1.77 1.79 2.67 3.59 3.51 3.34 3.25 3.34 3.52 3.59 3.67 3.53 3.16 2.80 2.70 2.74 2.82 2.90 2.99 2.87 2.64 2.45 2.25 2.24 2.17 2.11 2.09 1.97
2.96 3.68 3.74 3.28 3.08 2.74 2.03 1.77 1.60 1.80 1.60 1.06 0.83 1.14 1.36 1.82 1.93 1.95 1.94 1.92 1.69 1.70 1.80 2.36 3.28 3.35 3.23 3.20 3.45 3.64 3.48 3.43 3.38 3.18 2.84 2.77 2.76 2.74 2.84 2.90 2.85 2.65 2.52 2.35 2.30 2.19 2.07 1.96 1.95
3.26 3.30 3.62 3.45 3.24 2.83 2.29 1.86 1.69 1.72 1.52 1.13 1.02 1.28 1.73 2.39 2.41 2.25 1.90 1.91 1.84 1.69 1.70 2.17 2.95 3.20 3.15 3.26 3.48 3.55 3.45 3.32 3.11 2.84 2.67 2.65 2.77 2.76 2.85 2.87 2.75 2.53 2.52 2.38 2.16 2.06 1.95 1.88 1.89
3.15 3.15 3.12 2.87 3.16 3.38 2.65 1.80 1.83 1.72 1.63 1.35 1.03 1.39 1.81 2.58 2.42 2.25 2.04 1.98 2.03 1.90 1.91 2.28 2.71 2.91 3.34 3.53 3.48 3.47 3.45 3.29 2.98 2.63 2.57 2.61 2.75 2.66 2.70 2.77 2.66 2.39 2.31 2.18 1.97 1.83 1.75 1.80 1.87
2.43 2.52 2.47 2.58 3.07 3.25 2.32 1.47 1.35 1.57 1.63 1.14 0.95 1.33 1.78 2.19 2.15 2.22 2.23 2.24 2.10 2.00 2.01 2.16 2.40 2.49 2.82 3.15 3.47 3.53 3.38 3.25 3.04 2.63 2.51 2.59 2.72 2.73 2.69 2.48 2.52 2.46 2.33 2.19 1.95 1.81 1.77 1.83 1.89
2.24 2.66 2.85 2.98 2.89 2.64 1.77 1.49 1.33 1.21 1.28 1.08 0.97 1.09 1.51 1.65 1.81 2.17 2.42 2.37 2.08 1.88 1.82 1.95 2.11 2.21 2.46 2.78 3.07 3.32 3.17 3.05 2.83 2.49 2.39 2.37 2.30 2.14 2.24 2.20 2.65 2.63 2.48 2.31 2.16 2.03 1.92 1.84 1.77
2.36 2.82 2.75 2.33 1.86 1.78 1.52 1.39 1.35 1.29 1.38 1.32 1.20 1.27 1.62 1.83 1.90 2.05 2.15 2.05 1.85 1.88 1.77 1.78 1.93 2.01 2.11 2.30 2.90 2.96 2.47 2.26 2.05 2.17 2.13 2.07 2.08 1.94 1.63 1.90 2.43 2.56 2.54 2.28 2.11 2.07 1.80 1.44 1.30
1.83 2.07 1.79 1.76 1.42 1.27 1.30 1.26 1.17 1.41 1.67 1.36 1.34 1.46 1.80 2.01 1.90 1.90 1.88 1.76 1.68 1.65 1.60 1.62 1.75 1.69 1.66 1.91 2.29 2.49 2.42 2.30 2.04 1.88 1.83 1.94 1.90 1.74 1.55 1.71 1.89 1.89 1.85 1.71 1.67 1.52 1.26 1.15 1.22
1.60 1.50 1.28 1.41 1.24 1.23 1.29 1.18 1.16 1.27 1.44 1.12 1.21 1.45 1.75 1.92 1.86 1.79 1.70 1.66 1.57 1.47 1.41 1.47 1.50 1.44 1.39 1.50 1.65 1.73 1.92 1.95 1.86 1.62 1.43 1.53 1.70 1.65 1.45 1.47 1.55 1.58 1.55 1.63 1.59 1.49 1.34 1.25 1.24
1.77 1.56 1.33 1.28 1.23 1.19 1.18 1.15 1.09 1.12 1.11 1.11 1.23 1.59 1.88 2.08 2.16 2.10 1.79 1.52 1.40 1.43 1.40 1.44 1.39 1.36 1.34 1.42 1.51 1.41 1.60 1.72 1.70 1.64 1.42 1.34 1.40 1.45 1.38 1.25 1.37 1.43 1.46 1.44 1.43 1.38 1.39 1.45 1.41
1.63 1.48 1.43 1.40 1.25 1.11 1.15 1.13 1.09 1.31 1.19 1.21 1.32 1.58 1.71 1.87 1.92 1.81 1.73 1.46 1.28 1.27 1.36 1.40 1.49 1.50 1.35 1.29 1.33 1.32 1.36 1.49 1.45 1.50 1.43 1.37 1.35 1.34 1.35 1.31 1.39 1.47 1.51 1.46 1.38 1.31 1.42 1.46 1.48
1.28 1.55 1.59 1.47 1.30 1.18 1.12 1.39 1.28 1.34 1.29 1.38 1.39 1.40 1.47 1.56 1.63 1.52 1.41 1.23 1.19 1.16 1.17 1.22 1.37 1.43 1.32 1.30 1.32 1.29 1.38 1.45 1.44 1.39 1.30 1.39 1.35 1.32 1.34 1.37 1.40 1.43 1.52 1.58 1.57 1.50 1.51 1.51 1.61
1.43 1.80 2.06 1.64 1.40 1.33 1.42 1.71 1.44 1.41 1.44 1.37 1.32 1.36 1.37 1.38 1.48 1.48 1.41 1.22 1.13 1.07 1.06 1.08 1.05 1.16 1.26 1.35 1.42 1.49 1.52 1.52 1.51 1.39 1.29 1.27 1.25 1.26 1.33 1.35 1.40 1.46 1.45 1.52 1.65 1.67 1.70 1.69 1.75
1.76 1.81 1.78 1.68 1.35 1.36 1.44 1.50 1.37 1.42 1.42 1.30 1.21 1.21 1.17 1.18 1.22 1.25 1.30 1.25 1.16 1.10 1.10 1.15 1.14 1.18 1.29 1.36 1.50 1.59 1.69 1.74 1.79 1.66 1.64 1.54 1.41 1.42 1.51 1.56 1.55 1.56 1.62 1.64 1.57 1.62 1.75 1.85 1.84
1.63 1.33 1.35 1.44 1.27 1.22 1.30 1.20 1.21 1.37 1.38 1.34 1.22 1.14 1.06 1.09 1.08 1.09 1.16 1.21 1.22 1.20 1.20 1.25 1.38 1.43 1.55 1.70 1.94 2.15 2.27 2.34 2.39 2.32 2.20 2.02 1.77 1.69 1.83 1.85 1.73 1.77 1.89 2.00 1.90 1.98 1.89 1.80 1.86
1.02 0.99 1.05 1.01 0.90 1.02 1.02 1.02 1.07 1.13 1.24 1.18 1.05 1.05 1.05 1.06 1.09 1.09 1.08 1.15 1.22 1.24 1.22 1.22 1.38 1.51 1.59 1.81 2.10 2.60 2.87 2.91 2.74 2.70 2.60 2.37 2.12 2.07 2.23 2.23 2.20 2.20 2.21 2.19 2.15 2.37 2.27 1.98 1.88
0.89 0.97 0.97 0.91 0.82 0.88 0.86 0.88 0.85 0.86 0.87 0.89 0.83 0.84 0.95 1.00 1.11 1.08 1.05 1.07 1.09 1.10 1.13 1.31 1.46 1.57 1.63 1.85 2.13 2.48 2.90 2.99 2.90 2.75 2.65 2.52 2.35 2.30 2.32 2.55 2.65 2.58 2.77 2.78 2.56 2.69 2.73 2.34 2.09
0.84 0.91 0.93 0.98 0.94 0.83 0.80 0.90 0.86 0.79 0.74 0.71 0.74 0.78 0.83 0.80 0.92 0.99 1.04 1.09 1.08 1.04 1.02 1.15 1.40 1.63 1.90 2.14 2.42 2.58 2.85 2.95 2.94 2.76 2.66 2.67 2.56 2.43 2.50 2.61 2.77 2.78 2.84 3.04 3.16 3.07 3.17 2.95 2.50
0.90 0.63 0.61 0.73 1.06 1.13 0.86 1.05 0.85 0.73 0.82 0.80 0.77 0.76 0.76 0.77 0.82 0.88 0.97 1.05 1.05 0.97 0.95 1.04 1.23 1.53 1.96 2.27 2.45 2.66 3.00 3.10 2.95 2.83 2.70 2.70 2.70 2.68 2.80 2.77 2.83 2.85 2.87 2.97 3.13 3.13 3.34 3.46 3.03
0.68 0.56 0.58 0.67 0.92 1.00 0.78 0.82 0.77 0.70 0.79 0.79 0.71 0.67 0.67 0.65 0.66 0.75 0.81 0.84 0.91 0.99 1.01 1.07 1.30 1.64 2.03 2.18 2.37 2.68 2.84 2.94 3.02 2.88 2.78 2.74 2.78 2.81 2.88 2.92 3.02 2.99 2.97 2.88 3.08 3.19 3.34 3.29 3.25
0.52 0.67 0.76 0.78 0.96 1.02 0.59 0.67 0.79 0.65 0.54 0.59 0.63 0.61 0.58 0.54 0.54 0.66 0.81 0.87 0.96 1.04 1.13 1.25 1.43 1.69 2.02 2.20 2.40 2.49 2.63 2.79 2.86 2.88 2.79 2.73 2.76 2.85 2.73 2.67 2.84 2.89 2.90 2.84 2.97 3.10 3.28 3.29 3.33
0.59 1.00 1.39 1.37 1.34 1.01 0.50 0.62 0.75 0.52 0.41 0.47 0.53 0.55 0.54 0.56 0.63 0.76 0.93 1.10 1.20 1.28 1.30 1.42 1.58 1.83 2.02 2.13 2.24 2.27 2.30 2.40 2.37 2.51 2.57 2.69 2.67 2.70 2.72 2.62 2.64 2.69 2.62 2.58 2.68 2.72 2.80 2.95 3.14
0.52 0.78 1.28 1.41 1.17 0.87 0.65 0.85 0.81 0.52 0.44 0.48 0.51 0.54 0.58 0.68 0.79 0.96 1.15 1.38 1.48 1.59 1.60 1.60 1.68 1.82 1.92 1.98 2.03 2.13 2.14 2.16 2.10 2.08 2.08 2.24 2.39 2.43 2.48 2.52 2.47 2.52 2.55 2.48 2.56 2.56 2.57 2.62 2.68
0.55 0.62 0.67 0.90 0.79 0.79 0.75 0.83 0.83 0.62 0.55 0.54 0.57 0.63 0.72 0.92 1.06 1.23 1.41 1.52 1.53 1.65 1.70 1.68 1.71 1.74 1.78 1.90 1.96 1.89 1.88 1.91 1.91 1.88 1.92 1.95 1.99 2.00 2.04 2.10 2.23 2.35 2.40 2.42 2.52 2.56 2.51 2.44 2.44
0.49 0.66 0.86 1.18 1.29 1.11 0.88 0.95 0.97 0.81 0.68 0.61 0.67 0.79 0.97 1.22 1.40 1.59 1.78 1.75 1.71 1.76 1.91 1.86 1.78 1.76 1.81 1.88 1.92 1.84 1.84 1.85 1.82 1.71 1.75 1.71 1.65 1.65 1.73 1.81 1.96 2.23 2.36 2.39 2.44 2.50 2.51 2.48 2.40
0.53 0.71 0.92 1.23 1.30 1.44 1.46 1.46 1.12 0.90 0.88 0.96 1.04 1.15 1.35 1.59 1.77 1.92 2.06 2.04 1.88 1.79 1.82 1.81 1.76 1.75 1.72 1.79 1.91 1.87 1.82 1.82 1.80 1.68 1.60 1.61 1.59 1.57 1.64 1.68 1.80 1.93 2.15 2.36 2.50 2.48 2.42 2.40 2.35
0.62 0.85 1.09 1.61 1.52 1.34 1.55 1.68 1.21 1.01 1.04 1.07 1.10 1.26 1.48 1.59 1.68 1.76 1.81 1.94 1.82 1.74 1.67 1.69 1.67 1.55 1.59 1.65 1.77 1.88 1.80 1.75 1.73 1.63 1.68 1.60 1.51 1.50 1.49 1.58 1.77 1.88 1.95 2.04 2.12 2.16 2.19 2.21 2.23

GEFSSGP_prec_meanprecacc_384.txt.gz
Total_Precipitation_Accumulation
1.96 1.96 2.75 3.93 4.66 4.22 3.83 3.09 2.47 2.09 1.71 1.35 1.09 1.09 1.57 2.13 2.76 3.22 3.16 2.92 2.22 1.91 2.02 3.00 3.84 3.50 3.16 3.12 3.31 3.62 3.47 3.62 3.49 3.33 3.25 3.16 3.02 2.92 2.87 2.57 2.48 2.58 2.42 2.20 2.25 2.42 2.36 2.28 2.34
1.86 2.65 3.67 4.76 4.56 3.81 3.66 2.92 2.45 1.94 1.31 1.04 0.84 0.87 1.11 1.11 1.09 1.70 2.97 3.03 2.06 1.69 1.80 2.48 3.64 3.35 3.23 3.28 3.49 3.61 3.54 3.66 3.40 3.22 3.04 2.99 2.97 3.09 3.09 3.10 3.03 2.85 2.59 2.38 2.28 2.41 2.34 2.09 2.14
2.01 3.33 4.58 4.69 3.64 3.32 3.59 2.88 2.06 1.49 1.01 0.97 0.88 0.80 1.00 1.32 1.40 2.16 3.03 2.59 1.88 1.58 1.72 2.71 3.64 3.37 3.24 3.28 3.43 3.55 3.69 3.73 3.43 3.10 2.83 2.73 2.88 3.32 3.46 3.38 3.15 2.84 2.61 2.36 2.23 2.31 2.33 2.10 2.01
2.50 3.79 4.02 3.62 3.27 2.82 2.60 2.33 1.76 1.66 1.24 0.88 0.81 0.92 0.91 1.34 1.60 2.09 2.30 1.99 1.80 1.78 1.80 2.68 3.60 3.52 3.35 3.26 3.36 3.54 3.61 3.69 3.56 3.19 2.84 2.76 2.83 2.91 2.99 3.07 2.94 2.71 2.53 2.33 2.33 2.27 2.23 2.20 2.07
2.98 3.71 3.76 3.29 3.10 2.75 2.04 1.78 1.61 1.81 1.62 1.07 0.83 1.15 1.37 1.83 1.94 1.96 1.95 1.92 1.69 1.71 1.81 2.38 3.29 3.36 3.24 3.21 3.47 3.66 3.52 3.46 3.42 3.22 2.88 2.82 2.82 2.81 2.94 3.01 2.96 2.74 2.63 2.45 2.41 2.28 2.18 2.08 2.06
3.30 3.34 3.65 3.46 3.25 2.85 2.31 1.87 1.71 1.73 1.53 1.15 1.03 1.29 1.76 2.41 2.43 2.27 1.90 1.91 1.85 1.69 1.71 2.18 2.97 3.23 3.16 3.26 3.49 3.56 3.46 3.35 3.14 2.87 2.71 2.69 2.81 2.81 2.92 2.97 2.89 2.67 2.66 2.51 2.30 2.17 2.06 1.99 2.00
3.20 3.21 3.15 2.89 3.17 3.41 2.68 1.82 1.84 1.73 1.64 1.36 1.04 1.40 1.84 2.59 2.45 2.27 2.05 1.99 2.03 1.90 1.92 2.28 2.72 2.92 3.35 3.53 3.49 3.48 3.46 3.30 3.00 2.64 2.59 2.64 2.77 2.68 2.74 2.83 2.75 2.49 2.44 2.33 2.15 1.99 1.88 1.91 1.96
2.45 2.56 2.50 2.61 3.09 3.28 2.34 1.49 1.36 1.59 1.64 1.15 0.97 1.34 1.80 2.20 2.17 2.24 2.24 2.24 2.10 2.01 2.01 2.16 2.40 2.49 2.82 3.15 3.47 3.54 3.39 3.26 3.05 2.64 2.52 2.61 2.73 2.75 2.71 2.51 2.58 2.54 2.44 2.35 2.14 1.97 1.89 1.94 1.99
2.26 2.69 2.87 3.00 2.92 2.67 1.81 1.51 1.35 1.23 1.30 1.10 0.99 1.11 1.52 1.65 1.82 2.19 2.43 2.38 2.09 1.88 1.82 1.95 2.11 2.21 2.46 2.79 3.07 3.32 3.17 3.05 2.83 2.50 2.40 2.38 2.30 2.14 2.25 2.23 2.70 2.70 2.60 2.43 2.29 2.15 2.03 1.95 1.88
2.37 2.84 2.77 2.34 1.88 1.81 1.54 1.41 1.37 1.32 1.40 1.33 1.21 1.28 1.63 1.84 1.91 2.06 2.16 2.07 1.86 1.89 1.78 1.79 1.93 2.01 2.11 2.31 2.91 2.96 2.47 2.26 2.06 2.18 2.14 2.08 2.08 1.95 1.64 1.92 2.46 2.62 2.70 2.46 2.23 2.17 1.89 1.52 1.40
1.84 2.08 1.80 1.76 1.43 1.28 1.32 1.28 1.18 1.44 1.68 1.37 1.35 1.48 1.81 2.02 1.90 1.90 1.89 1.77 1.69 1.67 1.61 1.63 1.76 1.70 1.67 1.92 2.29 2.50 2.43 2.30 2.04 1.89 1.84 1.94 1.91 1.75 1.56 1.73 1.92 1.92 1.94 1.91 1.87 1.66 1.35 1.22 1.30
1.62 1.51 1.28 1.42 1.25 1.24 1.30 1.20 1.17 1.28 1.45 1.13 1.22 1.47 1.77 1.93 1.87 1.80 1.71 1.67 1.57 1.47 1.42 1.48 1.51 1.46 1.40 1.51 1.66 1.73 1.93 1.96 1.87 1.64 1.45 1.55 1.72 1.65 1.45 1.48 1.57 1.60 1.58 1.69 1.68 1.56 1.39 1.30 1.31
1.79 1.58 1.34 1.28 1.24 1.19 1.18 1.16 1.10 1.13 1.12 1.12 1.24 1.62 1.91 2.10 2.16 2.10 1.80 1.53 1.41 1.43 1.40 1.44 1.40 1.37 1.35 1.44 1.52 1.42 1.60 1.72 1.72 1.66 1.44 1.37 1.43 1.47 1.39 1.25 1.38 1.45 1.49 1.47 1.45 1.41 1.42 1.47 1.44
1.63 1.49 1.45 1.41 1.26 1.11 1.16 1.14 1.10 1.32 1.20 1.22 1.34 1.62 1.74 1.90 1.94 1.82 1.74 1.47 1.28 1.28 1.37 1.41 1.50 1.52 1.37 1.30 1.34 1.33 1.36 1.50 1.46 1.51 1.45 1.39 1.38 1.37 1.37 1.33 1.40 1.48 1.53 1.49 1.40 1.33 1.44 1.49 1.52
1.28 1.56 1.61 1.49 1.32 1.20 1.13 1.40 1.30 1.36 1.31 1.40 1.41 1.43 1.50 1.59 1.65 1.54 1.42 1.24 1.20 1.18 1.18 1.24 1.39 1.46 1.35 1.33 1.34 1.31 1.39 1.46 1.45 1.40 1.31 1.40 1.37 1.34 1.35 1.38 1.42 1.44 1.53 1.59 1.60 1.52 1.53 1.54 1.65
1.43 1.80 2.07 1.65 1.41 1.35 1.43 1.74 1.49 1.45 1.47 1.40 1.35 1.40 1.40 1.41 1.50 1.49 1.42 1.23 1.15 1.08 1.07 1.10 1.06 1.19 1.29 1.38 1.45 1.51 1.55 1.54 1.53 1.40 1.30 1.27 1.26 1.27 1.33 1.36 1.41 1.47 1.46 1.54 1.68 1.69 1.72 1.72 1.79
1.76 1.81 1.78 1.69 1.36 1.37 1.45 1.53 1.41 1.46 1.46 1.34 1.24 1.24 1.20 1.20 1.23 1.27 1.31 1.26 1.18 1.11 1.11 1.16 1.15 1.19 1.31 1.39 1.53 1.63 1.73 1.78 1.83 1.69 1.66 1.56 1.43 1.43 1.51 1.56 1.56 1.57 1.64 1.66 1.59 1.63 1.77 1.87 1.87
1.63 1.33 1.35 1.44 1.27 1.23 1.31 1.21 1.23 1.39 1.41 1.38 1.25 1.17 1.08 1.12 1.11 1.11 1.17 1.24 1.23 1.21 1.21 1.26 1.38 1.44 1.56 1.73 1.97 2.19 2.32 2.39 2.44 2.37 2.23 2.04 1.79 1.72 1.86 1.87 1.74 1.79 1.91 2.02 1.92 1.99 1.90 1.81 1.88
1.02 0.99 1.05 1.01 0.90 1.02 1.02 1.03 1.09 1.14 1.26 1.21 1.09 1.08 1.08 1.11 1.13 1.12 1.09 1.16 1.24 1.26 1.23 1.22 1.39 1.52 1.61 1.86 2.15 2.64 2.92 2.98 2.80 2.75 2.64 2.40 2.15 2.11 2.27 2.26 2.23 2.22 2.23 2.22 2.17 2.38 2.28 1.99 1.89
0.90 0.98 0.98 0.92 0.82 0.88 0.87 0.88 0.87 0.88 0.89 0.91 0.86 0.89 1.00 1.04 1.15 1.12 1.08 1.09 1.10 1.10 1.14 1.32 1.47 1.57 1.64 1.87 2.17 2.52 2.94 3.05 2.97 2.80 2.69 2.56 2.39 2.34 2.36 2.59 2.67 2.61 2.80 2.82 2.58 2.71 2.74 2.35 2.10
0.84 0.92 0.93 0.99 0.94 0.84 0.81 0.91 0.86 0.79 0.75 0.72 0.76 0.81 0.86 0.83 0.95 1.03 1.06 1.12 1.09 1.05 1.02 1.16 1.42 1.65 1.92 2.15 2.43 2.60 2.88 2.99 2.99 2.83 2.74 2.71 2.59 2.46 2.55 2.65 2.80 2.80 2.87 3.07 3.19 3.09 3.19 2.96 2.50
0.90 0.63 0.61 0.73 1.06 1.14 0.86 1.06 0.86 0.74 0.83 0.81 0.78 0.78 0.78 0.79 0.84 0.91 0.99 1.06 1.06 0.98 0.96 1.06 1.25 1.56 1.99 2.28 2.47 2.68 3.02 3.13 2.99 2.89 2.78 2.78 2.76 2.72 2.84 2.83 2.87 2.89 2.91 3.00 3.17 3.16 3.37 3.49 3.05
0.69 0.56 0.58 0.68 0.93 1.01 0.78 0.82 0.78 0.70 0.79 0.79 0.72 0.69 0.69 0.67 0.68 0.78 0.84 0.86 0.93 1.01 1.03 1.09 1.33 1.67 2.06 2.21 2.40 2.70 2.85 2.96 3.07 2.94 2.86 2.82 2.86 2.87 2.92 2.96 3.07 3.04 3.00 2.91 3.11 3.23 3.38 3.32 3.27
0.53 0.69 0.78 0.79 0.97 1.03 0.60 0.67 0.79 0.65 0.55 0.60 0.64 0.61 0.59 0.56 0.56 0.68 0.84 0.90 0.98 1.07 1.16 1.28 1.46 1.71 2.04 2.22 2.43 2.51 2.64 2.81 2.90 2.94 2.86 2.82 2.84 2.95 2.81 2.72 2.89 2.93 2.92 2.86 3.00 3.14 3.31 3.32 3.36
0.60 1.02 1.41 1.38 1.34 1.02 0.51 0.63 0.75 0.52 0.41 0.48 0.54 0.56 0.55 0.58 0.65 0.78 0.96 1.15 1.23 1.30 1.32 1.43 1.60 1.84 2.04 2.15 2.26 2.29 2.32 2.42 2.40 2.56 2.64 2.77 2.76 2.79 2.79 2.67 2.69 2.72 2.64 2.60 2.70 2.75 2.83 2.99 3.17
0.53 0.80 1.30 1.42 1.18 0.88 0.65 0.85 0.81 0.52 0.44 0.48 0.51 0.55 0.59 0.69 0.80 0.98 1.18 1.41 1.51 1.61 1.61 1.61 1.68 1.83 1.93 2.00 2.06 2.15 2.16 2.18 2.12 2.11 2.13 2.31 2.46 2.50 2.56 2.57 2.51 2.56 2.58 2.50 2.59 2.59 2.59 2.64 2.70
0.56 0.64 0.68 0.91 0.79 0.79 0.76 0.84 0.84 0.62 0.55 0.54 0.57 0.64 0.74 0.92 1.07 1.24 1.43 1.55 1.56 1.67 1.72 1.69 1.72 1.76 1.79 1.92 1.99 1.91 1.90 1.94 1.94 1.92 1.99 2.01 2.05 2.07 2.12 2.18 2.30 2.39 2.44 2.45 2.54 2.58 2.53 2.45 2.44
0.50 0.67 0.88 1.20 1.30 1.12 0.88 0.95 0.98 0.82 0.68 0.61 0.67 0.79 0.97 1.23 1.41 1.61 1.80 1.79 1.74 1.78 1.92 1.87 1.79 1.77 1.83 1.90 1.95 1.88 1.88 1.87 1.84 1.75 1.82 1.80 1.73 1.71 1.79 1.87 2.03 2.31 2.43 2.42 2.47 2.52 2.53 2.50 2.41
0.53 0.72 0.94 1.25 1.31 1.46 1.47 1.47 1.12 0.91 0.88 0.96 1.04 1.16 1.36 1.60 1.81 1.97 2.10 2.09 1.92 1.82 1.84 1.82 1.77 1.77 1.75 1.82 1.93 1.91 1.87 1.86 1.83 1.71 1.65 1.68 1.67 1.66 1.72 1.74 1.86 1.99 2.20 2.40 2.53 2.50 2.44 2.41 2.36
0.62 0.85 1.10 1.62 1.54 1.35 1.56 1.68 1.22 1.01 1.04 1.07 1.10 1.27 1.49 1.61 1.70 1.78 1.85 1.98 1.85 1.76 1.68 1.70 1.68 1.56 1.61 1.68 1.80 1.93 1.85 1.81 1.78 1.66 1.72 1.66 1.58 1.57 1.56 1.64 1.83 1.93 1.99 2.07 2.14 2.18 2.21 2.22 2.24